Observation data for Amarillo 7 South Southeast on 11/13/2019      Previous  Date       Current Mesonet Observations  Soil Data  Daily Summary Page  Observations in Plain Language
KAM1 130600Z 23012KT M00/M09 A3009 RMK A01 T10031091  RH  051%=      5-min Rain = 0
KAM1 130601Z 23012KT M00/M09 A3009 RMK A01 T10021091  RH  051%=      5-min Rain = 0
KAM1 130602Z 23014KT M00/M09 A3008 RMK A01 T10021092  RH  051%=      5-min Rain = 0
KAM1 130603Z 23013G18KT M00/M09 A3008 RMK A01 T10021091  RH  051%=      5-min Rain = 0
KAM1 130604Z 22014KT M00/M09 A3008 RMK A01 T10021092  RH  051%=      5-min Rain = 0
KAM1 130605Z 22014KT M00/M09 A3008 RMK A01 T10021092  RH  051%=      5-min Rain = 0
KAM1 130606Z 22015KT M00/M09 A3008 RMK A01 T10011091  RH  051%=      5-min Rain = 0
KAM1 130607Z 23014KT 00/09 A3008 RMK A01 T00-00-91  RH  050%=      5-min Rain = 0
KAM1 130608Z 23012KT 00/09 A3009 RMK A01 T00000-91  RH  050%=      5-min Rain = 0
KAM1 130609Z 22012KT 00/09 A3009 RMK A01 T00-00-92  RH  050%=      5-min Rain = 0
KAM1 130610Z 23012KT 00/09 A3009 RMK A01 T00-00-91  RH  050%=      5-min Rain = 0
KAM1 130611Z 23012KT 00/09 A3008 RMK A01 T00-00-91  RH  050%=      5-min Rain = 0
KAM1 130612Z 23014KT M00/M09 A3008 RMK A01 T10011092  RH  050%=      5-min Rain = 0
KAM1 130613Z 23012KT M00/M09 A3008 RMK A01 T10011092  RH  050%=      5-min Rain = 0
KAM1 130614Z 22011KT M00/M09 A3008 RMK A01 T10011092  RH  050%=      5-min Rain = 0
KAM1 130615Z 22012KT M00/M09 A3008 RMK A01 T10021092  RH  050%=      5-min Rain = 0
KAM1 130616Z 22011KT M00/M09 A3008 RMK A01 T10021092  RH  051%=      5-min Rain = 0
KAM1 130617Z 22012KT M00/M09 A3008 RMK A01 T10021092  RH  051%=      5-min Rain = 0
KAM1 130618Z 22011KT M00/M09 A3008 RMK A01 T10021092  RH  051%=      5-min Rain = 0
KAM1 130619Z 22013KT M00/M09 A3008 RMK A01 T10021092  RH  051%=      5-min Rain = 0
KAM1 130620Z 22011KT M00/M09 A3008 RMK A01 T10021091  RH  051%=      5-min Rain = 0
KAM1 130621Z 22010KT M00/M09 A3008 RMK A01 T10031092  RH  051%=      5-min Rain = 0
KAM1 130622Z 22011KT M00/M09 A3008 RMK A01 T10031092  RH  051%=      5-min Rain = 0
KAM1 130623Z 22011G16KT M00/M09 A3008 RMK A01 T10041092  RH  051%=      5-min Rain = 0
KAM1 130624Z 22012KT M00/M09 A3008 RMK A01 T10041092  RH  051%=      5-min Rain = 0
KAM1 130625Z 23012KT M00/M09 A3008 RMK A01 T10031091  RH  051%=      5-min Rain = 0
KAM1 130626Z 22011KT M00/M09 A3008 RMK A01 T10031091  RH  051%=      5-min Rain = 0
KAM1 130627Z 22011KT M00/M09 A3008 RMK A01 T10031091  RH  051%=      5-min Rain = 0
KAM1 130628Z 22012KT M00/M09 A3007 RMK A01 T10031092  RH  051%=      5-min Rain = 0
KAM1 130629Z 22012KT M00/M09 A3007 RMK A01 T10031091  RH  051%=      5-min Rain = 0
KAM1 130630Z 22012KT M00/M09 A3008 RMK A01 T10031091  RH  051%=      5-min Rain = 0
KAM1 130631Z 22011KT M00/M09 A3008 RMK A01 T10031091  RH  051%=      5-min Rain = 0
KAM1 130632Z 22012KT M00/M09 A3008 RMK A01 T10031091  RH  051%=      5-min Rain = 0
KAM1 130633Z 22012KT M00/M09 A3008 RMK A01 T10031091  RH  052%=      5-min Rain = 0
KAM1 130634Z 22013KT M00/M09 A3007 RMK A01 T10031091  RH  052%=      5-min Rain = 0
KAM1 130635Z 22012KT M00/M09 A3007 RMK A01 T10031091  RH  051%=      5-min Rain = 0
KAM1 130636Z 22013KT M00/M09 A3007 RMK A01 T10031091  RH  051%=      5-min Rain = 0
KAM1 130637Z 22012KT M00/M09 A3007 RMK A01 T10021091  RH  051%=      5-min Rain = 0
KAM1 130638Z 22012KT M00/M09 A3007 RMK A01 T10021090  RH  051%=      5-min Rain = 0
KAM1 130639Z 22013KT M00/M09 A3007 RMK A01 T10021090  RH  051%=      5-min Rain = 0
KAM1 130640Z 21010KT M00/M09 A3007 RMK A01 T10021090  RH  051%=      5-min Rain = 0
KAM1 130641Z 21011G16KT M00/M09 A3007 RMK A01 T10021090  RH  052%=      5-min Rain = 0
KAM1 130642Z 22011KT M00/M09 A3007 RMK A01 T10031090  RH  052%=      5-min Rain = 0
KAM1 130643Z 22011KT M00/M09 A3007 RMK A01 T10031090  RH  052%=      5-min Rain = 0
KAM1 130644Z 22012KT M00/M09 A3007 RMK A01 T10041090  RH  052%=      5-min Rain = 0
KAM1 130645Z 22011KT M00/M09 A3007 RMK A01 T10041090  RH  052%=      5-min Rain = 0
KAM1 130646Z 22010KT M01/M09 A3007 RMK A01 T10051091  RH  052%=      5-min Rain = 0
KAM1 130647Z 22011KT M01/M09 A3007 RMK A01 T10051090  RH  053%=      5-min Rain = 0
KAM1 130648Z 22010KT M01/M09 A3007 RMK A01 T10061090  RH  053%=      5-min Rain = 0
KAM1 130649Z 22010KT M01/M09 A3007 RMK A01 T10061090  RH  053%=      5-min Rain = 0
KAM1 130650Z 22010KT M01/M09 A3007 RMK A01 T10071091  RH  053%=      5-min Rain = 0
KAM1 130651Z 22009KT M01/M09 A3007 RMK A01 T10081091  RH  053%=      5-min Rain = 0
KAM1 130652Z 22010KT M01/M09 A3007 RMK A01 T10081091  RH  054%=      5-min Rain = 0
KAM1 130653Z 23009KT M01/M09 A3007 RMK A01 T10091091  RH  054%=      5-min Rain = 0
KAM1 130654Z 23009KT M01/M09 A3007 RMK A01 T10091091  RH  054%=      5-min Rain = 0
KAM1 130655Z 23009KT M01/M09 A3007 RMK A01 T10101091  RH  054%=      5-min Rain = 0
KAM1 130656Z 22009KT M01/M09 A3007 RMK A01 T10101091  RH  054%=      5-min Rain = 0
KAM1 130657Z 22010KT M01/M09 A3007 RMK A01 T10111091  RH  054%=      5-min Rain = 0
KAM1 130658Z 22010KT M01/M09 A3007 RMK A01 T10111091  RH  055%=      5-min Rain = 0
KAM1 130659Z 22010KT M01/M09 A3007 RMK A01 T10111090  RH  055%=      5-min Rain = 0
KAM1 130700Z 22011KT M01/M09 A3007 RMK A01 T10111091  RH  055%=      5-min Rain = 0
KAM1 130701Z 21010KT M01/M09 A3007 RMK A01 T10101090  RH  055%=      5-min Rain = 0
KAM1 130702Z 22009KT M01/M09 A3007 RMK A01 T10111090  RH  055%=      5-min Rain = 0
KAM1 130703Z 22010KT M01/M09 A3007 RMK A01 T10111091  RH  055%=      5-min Rain = 0
KAM1 130704Z 22010KT M01/M09 A3007 RMK A01 T10121090  RH  055%=      5-min Rain = 0
KAM1 130705Z 22010KT M01/M09 A3007 RMK A01 T10121090  RH  055%=      5-min Rain = 0
KAM1 130706Z 22010KT M01/M09 A3007 RMK A01 T10131091  RH  056%=      5-min Rain = 0
KAM1 130707Z 21011KT M01/M09 A3007 RMK A01 T10131090  RH  056%=      5-min Rain = 0
KAM1 130708Z 21011KT M01/M09 A3007 RMK A01 T10131090  RH  056%=      5-min Rain = 0
KAM1 130709Z 22010KT M01/M09 A3007 RMK A01 T10131090  RH  056%=      5-min Rain = 0
KAM1 130710Z 22010KT M01/M09 A3007 RMK A01 T10131090  RH  056%=      5-min Rain = 0
KAM1 130711Z 22010KT M01/M09 A3007 RMK A01 T10131089  RH  056%=      5-min Rain = 0
KAM1 130712Z 23010KT M01/M09 A3007 RMK A01 T10131090  RH  056%=      5-min Rain = 0
KAM1 130713Z 22010KT M01/M09 A3007 RMK A01 T10141090  RH  056%=      5-min Rain = 0
KAM1 130714Z 22011KT M01/M09 A3006 RMK A01 T10141089  RH  056%=      5-min Rain = 0
KAM1 130715Z 22011KT M01/M09 A3006 RMK A01 T10141089  RH  056%=      5-min Rain = 0
KAM1 130716Z 22011KT M01/M09 A3006 RMK A01 T10141089  RH  056%=      5-min Rain = 0
KAM1 130717Z 22012KT M01/M09 A3006 RMK A01 T10141089  RH  056%=      5-min Rain = 0
KAM1 130718Z 22012KT M01/M09 A3006 RMK A01 T10141089  RH  056%=      5-min Rain = 0
KAM1 130719Z 21012KT M01/M09 A3006 RMK A01 T10131089  RH  056%=      5-min Rain = 0
KAM1 130720Z 22013KT M01/M09 A3006 RMK A01 T10121089  RH  056%=      5-min Rain = 0
KAM1 130721Z 22012KT M01/M09 A3006 RMK A01 T10121089  RH  056%=      5-min Rain = 0
KAM1 130722Z 22011KT M01/M09 A3006 RMK A01 T10121089  RH  056%=      5-min Rain = 0
KAM1 130723Z 22012KT M01/M09 A3006 RMK A01 T10131089  RH  056%=      5-min Rain = 0
KAM1 130724Z 22011KT M01/M09 A3005 RMK A01 T10131089  RH  056%=      5-min Rain = 0
KAM1 130725Z 22011KT M01/M09 A3005 RMK A01 T10141089  RH  056%=      5-min Rain = 0
KAM1 130726Z 22010KT M01/M09 A3005 RMK A01 T10141089  RH  057%=      5-min Rain = 0
KAM1 130727Z 22012KT M01/M09 A3005 RMK A01 T10141089  RH  057%=      5-min Rain = 0
KAM1 130728Z 22011KT M01/M09 A3005 RMK A01 T10141089  RH  057%=      5-min Rain = 0
KAM1 130729Z 22011KT M01/M09 A3005 RMK A01 T10141089  RH  057%=      5-min Rain = 0
KAM1 130730Z 22011KT M01/M09 A3005 RMK A01 T10141089  RH  057%=      5-min Rain = 0
KAM1 130731Z 22012KT M01/M09 A3005 RMK A01 T10141089  RH  057%=      5-min Rain = 0
KAM1 130732Z 21012KT M01/M09 A3005 RMK A01 T10131088  RH  056%=      5-min Rain = 0
KAM1 130733Z 21011KT M01/M09 A3005 RMK A01 T10121088  RH  056%=      5-min Rain = 0
KAM1 130734Z 22012KT M01/M09 A3005 RMK A01 T10121089  RH  056%=      5-min Rain = 0
KAM1 130735Z 22013KT M01/M09 A3005 RMK A01 T10121088  RH  056%=      5-min Rain = 0
KAM1 130736Z 21012KT M01/M09 A3005 RMK A01 T10111088  RH  056%=      5-min Rain = 0
KAM1 130737Z 22013KT M01/M09 A3005 RMK A01 T10101088  RH  055%=      5-min Rain = 0
KAM1 130738Z 22012KT M01/M09 A3005 RMK A01 T10091088  RH  055%=      5-min Rain = 0
KAM1 130739Z 22013KT M01/M09 A3005 RMK A01 T10091088  RH  055%=      5-min Rain = 0
KAM1 130740Z 22011KT M01/M09 A3005 RMK A01 T10081088  RH  055%=      5-min Rain = 0
KAM1 130741Z 22011KT M01/M09 A3005 RMK A01 T10081088  RH  055%=      5-min Rain = 0
KAM1 130742Z 22011KT M01/M09 A3005 RMK A01 T10081088  RH  055%=      5-min Rain = 0
KAM1 130743Z 22011KT M01/M09 A3004 RMK A01 T10091088  RH  055%=      5-min Rain = 0
KAM1 130744Z 22011KT M01/M09 A3004 RMK A01 T10101089  RH  055%=      5-min Rain = 0
KAM1 130745Z 22011KT M01/M09 A3004 RMK A01 T10101089  RH  055%=      5-min Rain = 0
KAM1 130746Z 22012KT M01/M09 A3004 RMK A01 T10101088  RH  055%=      5-min Rain = 0
KAM1 130747Z 21011KT M01/M09 A3004 RMK A01 T10101088  RH  055%=      5-min Rain = 0
KAM1 130748Z 22011KT M01/M09 A3004 RMK A01 T10101088  RH  055%=      5-min Rain = 0
KAM1 130749Z 21011KT M01/M09 A3004 RMK A01 T10101088  RH  055%=      5-min Rain = 0
KAM1 130750Z 22010KT M01/M09 A3004 RMK A01 T10111089  RH  056%=      5-min Rain = 0
KAM1 130751Z 22010KT M01/M09 A3004 RMK A01 T10111088  RH  056%=      5-min Rain = 0
KAM1 130752Z 22010KT M01/M09 A3004 RMK A01 T10121088  RH  056%=      5-min Rain = 0
KAM1 130753Z 22010KT M01/M09 A3004 RMK A01 T10121089  RH  056%=      5-min Rain = 0
KAM1 130754Z 22010KT M01/M09 A3004 RMK A01 T10131089  RH  056%=      5-min Rain = 0
KAM1 130755Z 21010KT M01/M09 A3004 RMK A01 T10141089  RH  056%=      5-min Rain = 0
KAM1 130756Z 22010KT M01/M09 A3004 RMK A01 T10131089  RH  057%=      5-min Rain = 0
KAM1 130757Z 22010KT M01/M09 A3004 RMK A01 T10131089  RH  057%=      5-min Rain = 0
KAM1 130758Z 21009KT M01/M09 A3004 RMK A01 T10131089  RH  057%=      5-min Rain = 0
KAM1 130759Z 22009KT M01/M09 A3004 RMK A01 T10131088  RH  057%=      5-min Rain = 0
KAM1 130800Z 22009KT M01/M09 A3004 RMK A01 T10141089  RH  057%=      5-min Rain = 0
KAM1 130801Z 22009KT M02/M09 A3004 RMK A01 T10151089  RH  057%=      5-min Rain = 0
KAM1 130802Z 22009KT M02/M09 A3004 RMK A01 T10161089  RH  057%=      5-min Rain = 0
KAM1 130803Z 22010KT M02/M09 A3004 RMK A01 T10161089  RH  057%=      5-min Rain = 0
KAM1 130804Z 22009KT M02/M09 A3003 RMK A01 T10171089  RH  058%=      5-min Rain = 0
KAM1 130805Z 22010KT M02/M09 A3003 RMK A01 T10171089  RH  058%=      5-min Rain = 0
KAM1 130806Z 22009KT M02/M09 A3003 RMK A01 T10161088  RH  058%=      5-min Rain = 0
KAM1 130807Z 22008KT M02/M09 A3003 RMK A01 T10171089  RH  058%=      5-min Rain = 0
KAM1 130808Z 22008KT M02/M09 A3003 RMK A01 T10181089  RH  058%=      5-min Rain = 0
KAM1 130809Z 23008KT M02/M09 A3003 RMK A01 T10181089  RH  058%=      5-min Rain = 0
KAM1 130810Z 23008KT M02/M09 A3003 RMK A01 T10191090  RH  058%=      5-min Rain = 0
KAM1 130811Z 22009KT M02/M09 A3003 RMK A01 T10201090  RH  059%=      5-min Rain = 0
KAM1 130812Z 22009KT M02/M09 A3003 RMK A01 T10201090  RH  059%=      5-min Rain = 0
KAM1 130813Z 22009KT M02/M09 A3003 RMK A01 T10211090  RH  059%=      5-min Rain = 0
KAM1 130814Z 22009KT M02/M09 A3003 RMK A01 T10211090  RH  059%=      5-min Rain = 0
KAM1 130815Z 22009KT M02/M09 A3003 RMK A01 T10211090  RH  059%=      5-min Rain = 0
KAM1 130816Z 22009KT M02/M09 A3003 RMK A01 T10231091  RH  060%=      5-min Rain = 0
KAM1 130817Z 22009KT M02/M09 A3003 RMK A01 T10231090  RH  060%=      5-min Rain = 0
KAM1 130818Z 22009KT M02/M09 A3003 RMK A01 T10241091  RH  060%=      5-min Rain = 0
KAM1 130819Z 22009KT M02/M09 A3003 RMK A01 T10241091  RH  060%=      5-min Rain = 0
KAM1 130820Z 22009KT M03/M09 A3003 RMK A01 T10251090  RH  061%=      5-min Rain = 0
KAM1 130821Z 22009KT M03/M09 A3003 RMK A01 T10251090  RH  061%=      5-min Rain = 0
KAM1 130822Z 22009KT M03/M09 A3003 RMK A01 T10251090  RH  061%=      5-min Rain = 0
KAM1 130823Z 21009KT M03/M09 A3003 RMK A01 T10251089  RH  061%=      5-min Rain = 0
KAM1 130824Z 21009KT M03/M09 A3003 RMK A01 T10251090  RH  061%=      5-min Rain = 0
KAM1 130825Z 21009KT M03/M09 A3003 RMK A01 T10261090  RH  062%=      5-min Rain = 0
KAM1 130826Z 21009KT M03/M09 A3003 RMK A01 T10271090  RH  062%=      5-min Rain = 0
KAM1 130827Z 21009KT M03/M09 A3003 RMK A01 T10271090  RH  062%=      5-min Rain = 0
KAM1 130828Z 21009KT M03/M09 A3003 RMK A01 T10271090  RH  062%=      5-min Rain = 0
KAM1 130829Z 21009KT M03/M09 A3003 RMK A01 T10271089  RH  062%=      5-min Rain = 0
KAM1 130830Z 21009KT M03/M09 A3003 RMK A01 T10281090  RH  062%=      5-min Rain = 0
KAM1 130831Z 21008KT M03/M09 A3003 RMK A01 T10281089  RH  062%=      5-min Rain = 0
KAM1 130832Z 21008KT M03/M09 A3003 RMK A01 T10271089  RH  063%=      5-min Rain = 0
KAM1 130833Z 22007KT M03/M09 A3003 RMK A01 T10281090  RH  063%=      5-min Rain = 0
KAM1 130834Z 22007KT M03/M09 A3003 RMK A01 T10281090  RH  063%=      5-min Rain = 0
KAM1 130835Z 21008KT M03/M09 A3003 RMK A01 T10291090  RH  063%=      5-min Rain = 0
KAM1 130836Z 21008KT M03/M09 A3003 RMK A01 T10291090  RH  063%=      5-min Rain = 0
KAM1 130837Z 21008KT M03/M09 A3003 RMK A01 T10291090  RH  063%=      5-min Rain = 0
KAM1 130838Z 21009KT M03/M09 A3003 RMK A01 T10291090  RH  063%=      5-min Rain = 0
KAM1 130839Z 21008KT M03/M09 A3003 RMK A01 T10291090  RH  063%=      5-min Rain = 0
KAM1 130840Z 21008KT M03/M09 A3003 RMK A01 T10291089  RH  063%=      5-min Rain = 0
KAM1 130841Z 22008KT M03/M09 A3002 RMK A01 T10301090  RH  063%=      5-min Rain = 0
KAM1 130842Z 22008KT M03/M09 A3002 RMK A01 T10301090  RH  063%=      5-min Rain = 0
KAM1 130843Z 21008KT M03/M09 A3002 RMK A01 T10311090  RH  064%=      5-min Rain = 0
KAM1 130844Z 21009KT M03/M09 A3002 RMK A01 T10311090  RH  064%=      5-min Rain = 0
KAM1 130845Z 20009KT M03/M09 A3002 RMK A01 T10311090  RH  064%=      5-min Rain = 0
KAM1 130846Z 21009KT M03/M09 A3002 RMK A01 T10311090  RH  064%=      5-min Rain = 0
KAM1 130847Z 21009KT M03/M09 A3002 RMK A01 T10311089  RH  064%=      5-min Rain = 0
KAM1 130848Z 21010KT M03/M09 A3002 RMK A01 T10301088  RH  064%=      5-min Rain = 0
KAM1 130849Z 21010KT M03/M09 A3002 RMK A01 T10291088  RH  064%=      5-min Rain = 0
KAM1 130850Z 21010KT M03/M09 A3002 RMK A01 T10271087  RH  064%=      5-min Rain = 0
KAM1 130851Z 21009KT M03/M09 A3002 RMK A01 T10271087  RH  063%=      5-min Rain = 0
KAM1 130852Z 21009KT M03/M09 A3002 RMK A01 T10261087  RH  063%=      5-min Rain = 0
KAM1 130853Z 21009KT M03/M09 A3002 RMK A01 T10251087  RH  063%=      5-min Rain = 0
KAM1 130854Z 21009KT M03/M09 A3002 RMK A01 T10251087  RH  062%=      5-min Rain = 0
KAM1 130855Z 21009KT M03/M09 A3002 RMK A01 T10251088  RH  062%=      5-min Rain = 0
KAM1 130856Z 20008KT M03/M09 A3002 RMK A01 T10251088  RH  062%=      5-min Rain = 0
KAM1 130857Z 20008KT M03/M09 A3002 RMK A01 T10261088  RH  062%=      5-min Rain = 0
KAM1 130858Z 21007KT M03/M09 A3002 RMK A01 T10261089  RH  062%=      5-min Rain = 0
KAM1 130859Z 21007KT M03/M09 A3002 RMK A01 T10271089  RH  062%=      5-min Rain = 0
KAM1 130900Z 21007KT M03/M09 A3002 RMK A01 T10281089  RH  063%=      5-min Rain = 0
KAM1 130901Z 22008KT M03/M09 A3002 RMK A01 T10281089  RH  063%=      5-min Rain = 0
KAM1 130902Z 22008KT M03/M09 A3002 RMK A01 T10281089  RH  063%=      5-min Rain = 0
KAM1 130903Z 22008KT M03/M09 A3002 RMK A01 T10291089  RH  063%=      5-min Rain = 0
KAM1 130904Z 22009KT M03/M09 A3002 RMK A01 T10281089  RH  063%=      5-min Rain = 0
KAM1 130905Z 21009KT M03/M09 A3002 RMK A01 T10291089  RH  063%=      5-min Rain = 0
KAM1 130906Z 21008KT M03/M09 A3002 RMK A01 T10291089  RH  063%=      5-min Rain = 0
KAM1 130907Z 21009KT M03/M09 A3002 RMK A01 T10291089  RH  063%=      5-min Rain = 0
KAM1 130908Z 21008KT M03/M09 A3002 RMK A01 T10281088  RH  063%=      5-min Rain = 0
KAM1 130909Z 22008KT M03/M09 A3002 RMK A01 T10281088  RH  063%=      5-min Rain = 0
KAM1 130910Z 22007KT M03/M09 A3001 RMK A01 T10271088  RH  063%=      5-min Rain = 0
KAM1 130911Z 22007KT M03/M09 A3001 RMK A01 T10261088  RH  063%=      5-min Rain = 0
KAM1 130912Z 23007KT M03/M09 A3001 RMK A01 T10261088  RH  063%=      5-min Rain = 0
KAM1 130913Z 22008KT M03/M09 A3001 RMK A01 T10271088  RH  062%=      5-min Rain = 0
KAM1 130914Z 21008KT M03/M09 A3001 RMK A01 T10271089  RH  063%=      5-min Rain = 0
KAM1 130915Z 22009KT M03/M09 A3001 RMK A01 T10271089  RH  063%=      5-min Rain = 0
KAM1 130916Z 22008KT M03/M09 A3001 RMK A01 T10271088  RH  063%=      5-min Rain = 0
KAM1 130917Z 22009KT M03/M09 A3001 RMK A01 T10271089  RH  063%=      5-min Rain = 0
KAM1 130918Z 22009KT M03/M09 A3001 RMK A01 T10271089  RH  063%=      5-min Rain = 0
KAM1 130919Z 22009KT M03/M09 A3001 RMK A01 T10281089  RH  063%=      5-min Rain = 0
KAM1 130920Z 22009KT M03/M09 A3001 RMK A01 T10281088  RH  063%=      5-min Rain = 0
KAM1 130921Z 22010KT M03/M09 A3001 RMK A01 T10281088  RH  063%=      5-min Rain = 0
KAM1 130922Z 22010KT M03/M09 A3001 RMK A01 T10271088  RH  063%=      5-min Rain = 0
KAM1 130923Z 22008KT M03/M09 A3001 RMK A01 T10261087  RH  063%=      5-min Rain = 0
KAM1 130924Z 22008KT M03/M09 A30 RMK A01 T10261087  RH  063%=      5-min Rain = 0
KAM1 130925Z 21007KT M03/M09 A30 RMK A01 T10261087  RH  063%=      5-min Rain = 0
KAM1 130926Z 21008KT M03/M09 A30 RMK A01 T10271088  RH  063%=      5-min Rain = 0
KAM1 130927Z 21007KT M03/M09 A30 RMK A01 T10271088  RH  063%=      5-min Rain = 0
KAM1 130928Z 21007KT M03/M09 A30 RMK A01 T10271088  RH  063%=      5-min Rain = 0
KAM1 130929Z 21007KT M03/M09 A30 RMK A01 T10271088  RH  063%=      5-min Rain = 0
KAM1 130930Z 21007KT M03/M09 A30 RMK A01 T10281089  RH  063%=      5-min Rain = 0
KAM1 130931Z 21007KT M03/M09 A30 RMK A01 T10281089  RH  063%=      5-min Rain = 0
KAM1 130932Z 21007KT M03/M09 A30 RMK A01 T10291089  RH  063%=      5-min Rain = 0
KAM1 130933Z 21007KT M03/M09 A30 RMK A01 T10291089  RH  063%=      5-min Rain = 0
KAM1 130934Z 21007KT M03/M09 A30 RMK A01 T10301089  RH  064%=      5-min Rain = 0
KAM1 130935Z 21007KT M03/M09 A2999 RMK A01 T10301089  RH  064%=      5-min Rain = 0
KAM1 130936Z 22008KT M03/M09 A2999 RMK A01 T10301089  RH  064%=      5-min Rain = 0
KAM1 130937Z 22008KT M03/M09 A2999 RMK A01 T10291088  RH  064%=      5-min Rain = 0
KAM1 130938Z 22008KT M03/M09 A2999 RMK A01 T10291088  RH  064%=      5-min Rain = 0
KAM1 130939Z 22008KT M03/M09 A2999 RMK A01 T10291088  RH  064%=      5-min Rain = 0
KAM1 130940Z 22010KT M03/M09 A2999 RMK A01 T10291088  RH  064%=      5-min Rain = 0
KAM1 130941Z 22010KT M03/M09 A2999 RMK A01 T10281087  RH  064%=      5-min Rain = 0
KAM1 130942Z 22009KT M03/M09 A2999 RMK A01 T10271086  RH  064%=      5-min Rain = 0
KAM1 130943Z 22010KT M03/M09 A2999 RMK A01 T10271087  RH  063%=      5-min Rain = 0
KAM1 130944Z 22010KT M03/M09 A2999 RMK A01 T10261087  RH  063%=      5-min Rain = 0
KAM1 130945Z 22010KT M03/M09 A2999 RMK A01 T10261087  RH  063%=      5-min Rain = 0
KAM1 130946Z 22011KT M03/M09 A2999 RMK A01 T10271087  RH  063%=      5-min Rain = 0
KAM1 130947Z 22011KT M03/M09 A2999 RMK A01 T10271088  RH  063%=      5-min Rain = 0
KAM1 130948Z 22010KT M03/M09 A2999 RMK A01 T10271087  RH  063%=      5-min Rain = 0
KAM1 130949Z 22010KT M03/M09 A2999 RMK A01 T10271088  RH  063%=      5-min Rain = 0
KAM1 130950Z 21010KT M03/M09 A2999 RMK A01 T10271088  RH  063%=      5-min Rain = 0
KAM1 130951Z 22010KT M03/M09 A2999 RMK A01 T10271088  RH  063%=      5-min Rain = 0
KAM1 130952Z 21011KT M03/M09 A2998 RMK A01 T10271088  RH  063%=      5-min Rain = 0
KAM1 130953Z 22010KT M03/M09 A2998 RMK A01 T10261088  RH  063%=      5-min Rain = 0
KAM1 130954Z 23009KT M03/M09 A2998 RMK A01 T10261088  RH  062%=      5-min Rain = 0
KAM1 130955Z 22010KT M03/M09 A2998 RMK A01 T10261088  RH  062%=      5-min Rain = 0
KAM1 130956Z 22010KT M03/M09 A2998 RMK A01 T10271088  RH  063%=      5-min Rain = 0
KAM1 130957Z 22010KT M03/M09 A2998 RMK A01 T10271088  RH  063%=      5-min Rain = 0
KAM1 130958Z 23010KT M03/M09 A2998 RMK A01 T10261088  RH  062%=      5-min Rain = 0
KAM1 130959Z 23010KT M03/M09 A2998 RMK A01 T10261088  RH  062%=      5-min Rain = 0
KAM1 131000Z 22010KT M03/M09 A2998 RMK A01 T10261088  RH  062%=      5-min Rain = 0
KAM1 131001Z 22009KT M03/M09 A2998 RMK A01 T10261088  RH  062%=      5-min Rain = 0
KAM1 131002Z 22011KT M03/M09 A2998 RMK A01 T10261088  RH  062%=      5-min Rain = 0
KAM1 131003Z 22010KT M03/M09 A2998 RMK A01 T10261088  RH  062%=      5-min Rain = 0
KAM1 131004Z 22011KT M03/M09 A2998 RMK A01 T10261088  RH  062%=      5-min Rain = 0
KAM1 131005Z 22010KT M03/M09 A2998 RMK A01 T10251088  RH  062%=      5-min Rain = 0
KAM1 131006Z 22010KT M03/M09 A2998 RMK A01 T10251088  RH  062%=      5-min Rain = 0
KAM1 131007Z 22010KT M03/M09 A2997 RMK A01 T10251088  RH  062%=      5-min Rain = 0
KAM1 131008Z 22010KT M03/M09 A2997 RMK A01 T10251088  RH  062%=      5-min Rain = 0
KAM1 131009Z 22010KT M03/M09 A2997 RMK A01 T10261088  RH  062%=      5-min Rain = 0
KAM1 131010Z 22011KT M03/M09 A2997 RMK A01 T10261088  RH  062%=      5-min Rain = 0
KAM1 131011Z 22011KT M03/M09 A2997 RMK A01 T10261088  RH  062%=      5-min Rain = 0
KAM1 131012Z 22010KT M03/M09 A2997 RMK A01 T10251088  RH  062%=      5-min Rain = 0
KAM1 131013Z 22010KT M02/M09 A2997 RMK A01 T10241088  RH  062%=      5-min Rain = 0
KAM1 131014Z 22009KT M02/M09 A2997 RMK A01 T10231088  RH  061%=      5-min Rain = 0
KAM1 131015Z 22010KT M02/M09 A2997 RMK A01 T10231088  RH  061%=      5-min Rain = 0
KAM1 131016Z 22010KT M02/M09 A2997 RMK A01 T10231088  RH  061%=      5-min Rain = 0
KAM1 131017Z 23010KT M02/M09 A2997 RMK A01 T10231088  RH  061%=      5-min Rain = 0
KAM1 131018Z 22009KT M02/M09 A2997 RMK A01 T10221088  RH  061%=      5-min Rain = 0
KAM1 131019Z 22010KT M02/M09 A2997 RMK A01 T10221087  RH  061%=      5-min Rain = 0
KAM1 131020Z 22009KT M02/M09 A2997 RMK A01 T10211087  RH  061%=      5-min Rain = 0
KAM1 131021Z 22010KT M02/M09 A2997 RMK A01 T10221088  RH  060%=      5-min Rain = 0
KAM1 131022Z 22011KT M02/M09 A2997 RMK A01 T10211088  RH  060%=      5-min Rain = 0
KAM1 131023Z 22011KT M02/M09 A2997 RMK A01 T10201087  RH  060%=      5-min Rain = 0
KAM1 131024Z 22011KT M02/M09 A2996 RMK A01 T10201088  RH  060%=      5-min Rain = 0
KAM1 131025Z 22011KT M02/M09 A2996 RMK A01 T10201088  RH  060%=      5-min Rain = 0
KAM1 131026Z 21010KT M02/M09 A2996 RMK A01 T10201088  RH  060%=      5-min Rain = 0
KAM1 131027Z 21009KT M02/M09 A2996 RMK A01 T10201088  RH  060%=      5-min Rain = 0
KAM1 131028Z 21008KT M02/M09 A2996 RMK A01 T10201088  RH  060%=      5-min Rain = 0
KAM1 131029Z 21009KT M02/M09 A2996 RMK A01 T10211088  RH  060%=      5-min Rain = 0
KAM1 131030Z 22009KT M02/M09 A2996 RMK A01 T10221089  RH  060%=      5-min Rain = 0
KAM1 131031Z 21008KT M02/M09 A2996 RMK A01 T10221089  RH  060%=      5-min Rain = 0
KAM1 131032Z 21009KT M02/M09 A2996 RMK A01 T10221088  RH  061%=      5-min Rain = 0
KAM1 131033Z 21008KT M02/M09 A2996 RMK A01 T10231089  RH  061%=      5-min Rain = 0
KAM1 131034Z 21008KT M02/M09 A2996 RMK A01 T10231089  RH  061%=      5-min Rain = 0
KAM1 131035Z 21009KT M02/M09 A2996 RMK A01 T10241089  RH  061%=      5-min Rain = 0
KAM1 131036Z 21010KT M03/M09 A2996 RMK A01 T10251089  RH  061%=      5-min Rain = 0
KAM1 131037Z 21010KT M03/M09 A2996 RMK A01 T10251089  RH  061%=      5-min Rain = 0
KAM1 131038Z 21009KT M03/M09 A2996 RMK A01 T10251089  RH  061%=      5-min Rain = 0
KAM1 131039Z 20009KT M03/M09 A2996 RMK A01 T10251089  RH  062%=      5-min Rain = 0
KAM1 131040Z 20009KT M03/M09 A2996 RMK A01 T10251088  RH  062%=      5-min Rain = 0
KAM1 131041Z 21009KT M03/M09 A2996 RMK A01 T10261089  RH  062%=      5-min Rain = 0
KAM1 131042Z 21010KT M03/M09 A2996 RMK A01 T10261089  RH  062%=      5-min Rain = 0
KAM1 131043Z 21009KT M03/M09 A2996 RMK A01 T10261088  RH  062%=      5-min Rain = 0
KAM1 131044Z 21011KT M03/M09 A2996 RMK A01 T10261088  RH  062%=      5-min Rain = 0
KAM1 131045Z 21009KT M03/M09 A2996 RMK A01 T10251088  RH  062%=      5-min Rain = 0
KAM1 131046Z 20010KT M03/M09 A2996 RMK A01 T10261088  RH  062%=      5-min Rain = 0
KAM1 131047Z 20011KT M03/M09 A2996 RMK A01 T10271089  RH  062%=      5-min Rain = 0
KAM1 131048Z 21009KT M03/M09 A2996 RMK A01 T10261088  RH  062%=      5-min Rain = 0
KAM1 131049Z 20007KT M03/M09 A2996 RMK A01 T10261088  RH  062%=      5-min Rain = 0
KAM1 131050Z 21009KT M03/M09 A2996 RMK A01 T10271089  RH  062%=      5-min Rain = 0
KAM1 131051Z 21009KT M03/M09 A2996 RMK A01 T10281089  RH  063%=      5-min Rain = 0
KAM1 131052Z 20008KT M03/M09 A2996 RMK A01 T10281089  RH  063%=      5-min Rain = 0
KAM1 131053Z 21009KT M03/M09 A2996 RMK A01 T10291089  RH  063%=      5-min Rain = 0
KAM1 131054Z 21009KT M03/M09 A2997 RMK A01 T10291089  RH  063%=      5-min Rain = 0
KAM1 131055Z 21006KT M03/M09 A2997 RMK A01 T10291089  RH  063%=      5-min Rain = 0
KAM1 131056Z 21005KT M03/M09 A2996 RMK A01 T10291089  RH  063%=      5-min Rain = 0
KAM1 131057Z 21006KT M03/M09 A2996 RMK A01 T10301090  RH  064%=      5-min Rain = 0
KAM1 131058Z 22005KT M03/M09 A2996 RMK A01 T10311090  RH  064%=      5-min Rain = 0
KAM1 131059Z 21006KT M03/M09 A2996 RMK A01 T10321091  RH  064%=      5-min Rain = 0
KAM1 131100Z 21006KT M03/M09 A2996 RMK A01 T10331091  RH  064%=      5-min Rain = 0
KAM1 131101Z 21007KT M03/M09 A2996 RMK A01 T10341091  RH  065%=      5-min Rain = 0
KAM1 131102Z 21007KT M03/M09 A2996 RMK A01 T10341090  RH  065%=      5-min Rain = 0
KAM1 131103Z 21008KT M03/M09 A2996 RMK A01 T10331090  RH  065%=      5-min Rain = 0
KAM1 131104Z 21007KT M03/M09 A2996 RMK A01 T10341090  RH  065%=      5-min Rain = 0
KAM1 131105Z 20007KT M03/M09 A2996 RMK A01 T10341090  RH  065%=      5-min Rain = 0
KAM1 131106Z 20007KT M04/M09 A2996 RMK A01 T10351091  RH  066%=      5-min Rain = 0
KAM1 131107Z 20006KT M04/M09 A2996 RMK A01 T10361091  RH  066%=      5-min Rain = 0
KAM1 131108Z 21007KT M04/M09 A2996 RMK A01 T10371091  RH  066%=      5-min Rain = 0
KAM1 131109Z 20006KT M04/M09 A2996 RMK A01 T10371091  RH  067%=      5-min Rain = 0
KAM1 131110Z 21007KT M04/M09 A2996 RMK A01 T10381091  RH  067%=      5-min Rain = 0
KAM1 131111Z 21007KT M04/M09 A2996 RMK A01 T10391091  RH  067%=      5-min Rain = 0
KAM1 131112Z 21008KT M04/M09 A2996 RMK A01 T10391090  RH  067%=      5-min Rain = 0
KAM1 131113Z 22008KT M04/M09 A2996 RMK A01 T10381090  RH  068%=      5-min Rain = 0
KAM1 131114Z 22009KT M04/M09 A2996 RMK A01 T10381089  RH  068%=      5-min Rain = 0
KAM1 131115Z 22008KT M04/M09 A2996 RMK A01 T10371088  RH  068%=      5-min Rain = 0
KAM1 131116Z 22008KT M04/M09 A2995 RMK A01 T10371088  RH  068%=      5-min Rain = 0
KAM1 131117Z 22009KT M04/M09 A2995 RMK A01 T10371088  RH  067%=      5-min Rain = 0
KAM1 131118Z 22009KT M04/M09 A2995 RMK A01 T10361088  RH  067%=      5-min Rain = 0
KAM1 131119Z 21009KT M04/M09 A2995 RMK A01 T10361088  RH  067%=      5-min Rain = 0
KAM1 131120Z 21010KT M04/M09 A2995 RMK A01 T10351088  RH  067%=      5-min Rain = 0
KAM1 131121Z 22010KT M04/M09 A2995 RMK A01 T10351087  RH  067%=      5-min Rain = 0
KAM1 131122Z 22010KT M03/M09 A2995 RMK A01 T10331086  RH  067%=      5-min Rain = 0
KAM1 131123Z 22011KT M03/M09 A2995 RMK A01 T10321085  RH  067%=      5-min Rain = 0
KAM1 131124Z 22011KT M03/M08 A2995 RMK A01 T10301084  RH  066%=      5-min Rain = 0
KAM1 131125Z 22011KT M03/M08 A2995 RMK A01 T10291084  RH  066%=      5-min Rain = 0
KAM1 131126Z 22011KT M03/M08 A2995 RMK A01 T10281084  RH  065%=      5-min Rain = 0
KAM1 131127Z 22010KT M03/M08 A2995 RMK A01 T10261084  RH  065%=      5-min Rain = 0
KAM1 131128Z 22011KT M03/M08 A2995 RMK A01 T10251084  RH  064%=      5-min Rain = 0
KAM1 131129Z 23012KT M02/M08 A2995 RMK A01 T10241083  RH  064%=      5-min Rain = 0
KAM1 131130Z 23012KT M02/M08 A2995 RMK A01 T10241083  RH  064%=      5-min Rain = 0
KAM1 131131Z 23011KT M02/M08 A2995 RMK A01 T10221083  RH  063%=      5-min Rain = 0
KAM1 131132Z 23012KT M02/M08 A2995 RMK A01 T10221083  RH  063%=      5-min Rain = 0
KAM1 131133Z 23011KT M02/M08 A2995 RMK A01 T10211083  RH  063%=      5-min Rain = 0
KAM1 131134Z 23012KT M02/M08 A2995 RMK A01 T10211083  RH  062%=      5-min Rain = 0
KAM1 131135Z 23013KT M02/M08 A2995 RMK A01 T10211083  RH  062%=      5-min Rain = 0
KAM1 131136Z 22012KT M02/M08 A2995 RMK A01 T10191083  RH  062%=      5-min Rain = 0
KAM1 131137Z 22011KT M02/M08 A2995 RMK A01 T10181083  RH  061%=      5-min Rain = 0
KAM1 131138Z 22011KT M02/M08 A2995 RMK A01 T10171083  RH  061%=      5-min Rain = 0
KAM1 131139Z 23012KT M02/M08 A2995 RMK A01 T10181083  RH  061%=      5-min Rain = 0
KAM1 131140Z 23013KT M02/M08 A2995 RMK A01 T10181083  RH  061%=      5-min Rain = 0
KAM1 131141Z 23012KT M02/M08 A2994 RMK A01 T10161082  RH  061%=      5-min Rain = 0
KAM1 131142Z 23014KT M02/M08 A2994 RMK A01 T10161082  RH  061%=      5-min Rain = 0
KAM1 131143Z 23013KT M01/M08 A2994 RMK A01 T10141081  RH  060%=      5-min Rain = 0
KAM1 131144Z 23012KT M01/M08 A2994 RMK A01 T10131082  RH  060%=      5-min Rain = 0
KAM1 131145Z 23012KT M01/M08 A2994 RMK A01 T10131082  RH  059%=      5-min Rain = 0
KAM1 131146Z 23012KT M01/M08 A2994 RMK A01 T10131082  RH  059%=      5-min Rain = 0
KAM1 131147Z 23013KT M01/M08 A2994 RMK A01 T10121082  RH  059%=      5-min Rain = 0
KAM1 131148Z 23013KT M01/M08 A2994 RMK A01 T10121082  RH  059%=      5-min Rain = 0
KAM1 131149Z 23012KT M01/M08 A2994 RMK A01 T10131082  RH  059%=      5-min Rain = 0
KAM1 131150Z 23012KT M01/M08 A2994 RMK A01 T10131082  RH  059%=      5-min Rain = 0
KAM1 131151Z 23013KT M01/M08 A2994 RMK A01 T10131082  RH  059%=      5-min Rain = 0
KAM1 131152Z 23013KT M01/M08 A2994 RMK A01 T10121082  RH  059%=      5-min Rain = 0
KAM1 131153Z 23012KT M01/M08 A2994 RMK A01 T10121082  RH  059%=      5-min Rain = 0
KAM1 131154Z 23015KT M01/M08 A2994 RMK A01 T10121082  RH  059%=      5-min Rain = 0
KAM1 131155Z 23013KT M01/M08 A2994 RMK A01 T10121082  RH  059%=      5-min Rain = 0
KAM1 131156Z 23012KT M01/M08 A2994 RMK A01 T10121082  RH  059%=      5-min Rain = 0
KAM1 131157Z 23012KT M01/M08 A2994 RMK A01 T10121082  RH  059%=      5-min Rain = 0
KAM1 131158Z 23013KT M01/M08 A2994 RMK A01 T10121082  RH  059%=      5-min Rain = 0
KAM1 131159Z 23013KT M01/M08 A2994 RMK A01 T10111081  RH  059%=      5-min Rain = 0
KAM1 131200Z 24012KT M01/M08 A2993 RMK A01 T10111081  RH  059%=      5-min Rain = 0
KAM1 131201Z 24012KT M01/M08 A2993 RMK A01 T10111081  RH  059%=      5-min Rain = 0
KAM1 131202Z 23013KT M01/M08 A2993 RMK A01 T10101081  RH  059%=      5-min Rain = 0
KAM1 131203Z 23014KT M01/M08 A2993 RMK A01 T10101080  RH  059%=      5-min Rain = 0
KAM1 131204Z 24013KT M01/M08 A2993 RMK A01 T10091080  RH  059%=      5-min Rain = 0
KAM1 131205Z 24012KT M01/M08 A2993 RMK A01 T10091080  RH  058%=      5-min Rain = 0
KAM1 131206Z 24013KT M01/M08 A2993 RMK A01 T10081080  RH  058%=      5-min Rain = 0
KAM1 131207Z 24013KT M01/M08 A2993 RMK A01 T10081080  RH  058%=      5-min Rain = 0
KAM1 131208Z 24014KT M01/M08 A2993 RMK A01 T10071080  RH  058%=      5-min Rain = 0
KAM1 131209Z 24013KT M01/M08 A2993 RMK A01 T10071079  RH  058%=      5-min Rain = 0
KAM1 131210Z 24013KT M01/M08 A2993 RMK A01 T10061080  RH  058%=      5-min Rain = 0
KAM1 131211Z 23012KT M01/M08 A2993 RMK A01 T10071080  RH  058%=      5-min Rain = 0
KAM1 131212Z 24012KT M01/M08 A2993 RMK A01 T10071080  RH  058%=      5-min Rain = 0
KAM1 131213Z 24012KT M01/M08 A2993 RMK A01 T10071079  RH  058%=      5-min Rain = 0
KAM1 131214Z 23011KT M01/M08 A2993 RMK A01 T10071079  RH  058%=      5-min Rain = 0
KAM1 131215Z 24013KT M01/M08 A2993 RMK A01 T10071079  RH  058%=      5-min Rain = 0
KAM1 131216Z 23011KT M01/M08 A2993 RMK A01 T10071078  RH  058%=      5-min Rain = 0
KAM1 131217Z 24012KT M01/M08 A2993 RMK A01 T10061078  RH  058%=      5-min Rain = 0
KAM1 131218Z 24012KT M01/M08 A2993 RMK A01 T10061078  RH  058%=      5-min Rain = 0
KAM1 131219Z 24011KT M01/M08 A2993 RMK A01 T10051077  RH  058%=      5-min Rain = 0
KAM1 131220Z 23011KT M01/M08 A2993 RMK A01 T10051076  RH  058%=      5-min Rain = 0
KAM1 131221Z 23011KT M01/M08 A2993 RMK A01 T10051077  RH  058%=      5-min Rain = 0
KAM1 131222Z 23011KT M00/M08 A2993 RMK A01 T10041076  RH  058%=      5-min Rain = 0
KAM1 131223Z 23011KT M00/M08 A2993 RMK A01 T10041076  RH  058%=      5-min Rain = 0
KAM1 131224Z 23010KT M00/M08 A2993 RMK A01 T10041076  RH  058%=      5-min Rain = 0
KAM1 131225Z 22011KT M00/M08 A2993 RMK A01 T10041076  RH  058%=      5-min Rain = 0
KAM1 131226Z 22010KT M00/M08 A2993 RMK A01 T10041076  RH  058%=      5-min Rain = 0
KAM1 131227Z 22011KT M00/M08 A2993 RMK A01 T10041076  RH  058%=      5-min Rain = 0
KAM1 131228Z 22011KT M00/M08 A2993 RMK A01 T10041076  RH  058%=      5-min Rain = 0
KAM1 131229Z 22012KT M00/M08 A2993 RMK A01 T10031076  RH  058%=      5-min Rain = 0
KAM1 131230Z 22012KT M00/M08 A2993 RMK A01 T10021075  RH  058%=      5-min Rain = 0
KAM1 131231Z 22012KT M00/M08 A2993 RMK A01 T10021075  RH  058%=      5-min Rain = 0
KAM1 131232Z 21011KT M00/M07 A2993 RMK A01 T10011074  RH  058%=      5-min Rain = 0
KAM1 131233Z 21009KT 00/07 A2993 RMK A01 T00-00-74  RH  058%=      5-min Rain = 0
KAM1 131234Z 21010KT M00/M08 A2993 RMK A01 T10011075  RH  057%=      5-min Rain = 0
KAM1 131235Z 22009KT M00/M08 A2993 RMK A01 T10031077  RH  058%=      5-min Rain = 0
KAM1 131236Z 22010KT M01/M08 A2993 RMK A01 T10051077  RH  058%=      5-min Rain = 0
KAM1 131237Z 22011KT M01/M08 A2993 RMK A01 T10061077  RH  059%=      5-min Rain = 0
KAM1 131238Z 22011KT M01/M08 A2993 RMK A01 T10061077  RH  059%=      5-min Rain = 0
KAM1 131239Z 22012KT M01/M08 A2993 RMK A01 T10071077  RH  059%=      5-min Rain = 0
KAM1 131240Z 23013KT M01/M08 A2993 RMK A01 T10071077  RH  059%=      5-min Rain = 0
KAM1 131241Z 22012KT M01/M08 A2993 RMK A01 T10061077  RH  059%=      5-min Rain = 0
KAM1 131242Z 23011KT M01/M08 A2993 RMK A01 T10071077  RH  059%=      5-min Rain = 0
KAM1 131243Z 23012KT M01/M08 A2992 RMK A01 T10071077  RH  059%=      5-min Rain = 0
KAM1 131244Z 23011KT M01/M08 A2992 RMK A01 T10071077  RH  059%=      5-min Rain = 0
KAM1 131245Z 24010KT M01/M08 A2992 RMK A01 T10071077  RH  059%=      5-min Rain = 0
KAM1 131246Z 24011KT M01/M08 A2992 RMK A01 T10071077  RH  059%=      5-min Rain = 0
KAM1 131247Z 24010KT M01/M08 A2992 RMK A01 T10071077  RH  059%=      5-min Rain = 0
KAM1 131248Z 23012KT M01/M08 A2992 RMK A01 T10071076  RH  059%=      5-min Rain = 0
KAM1 131249Z 23011KT M01/M08 A2992 RMK A01 T10071076  RH  059%=      5-min Rain = 0
KAM1 131250Z 23011KT M01/M08 A2992 RMK A01 T10071076  RH  059%=      5-min Rain = 0
KAM1 131251Z 22012KT M01/M08 A2992 RMK A01 T10071076  RH  060%=      5-min Rain = 0
KAM1 131252Z 22012KT M01/M08 A2993 RMK A01 T10071076  RH  060%=      5-min Rain = 0
KAM1 131253Z 22012KT M01/M08 A2993 RMK A01 T10061075  RH  060%=      5-min Rain = 0
KAM1 131254Z 22011KT M01/M08 A2993 RMK A01 T10061075  RH  059%=      5-min Rain = 0
KAM1 131255Z 22013G18KT M01/M08 A2993 RMK A01 T10061075  RH  059%=      5-min Rain = 0
KAM1 131256Z 22014KT M01/M08 A2993 RMK A01 T10051075  RH  059%=      5-min Rain = 0
KAM1 131257Z 22013KT M00/M07 A2993 RMK A01 T10041074  RH  059%=      5-min Rain = 0
KAM1 131258Z 22012KT M00/M07 A2993 RMK A01 T10031074  RH  059%=      5-min Rain = 0
KAM1 131259Z 21012KT M00/M07 A2993 RMK A01 T10031074  RH  059%=      5-min Rain = 0
KAM1 131300Z 22011KT M00/M07 A2992 RMK A01 T10041074  RH  059%=      5-min Rain = 0
KAM1 131301Z 22013KT M00/M07 A2992 RMK A01 T10041074  RH  059%=      5-min Rain = 0
KAM1 131302Z 22010KT M00/M07 A2992 RMK A01 T10041074  RH  059%=      5-min Rain = 0
KAM1 131303Z 23013KT M00/M07 A2992 RMK A01 T10041074  RH  059%=      5-min Rain = 0
KAM1 131304Z 23013G18KT M01/M07 A2992 RMK A01 T10051074  RH  059%=      5-min Rain = 0
KAM1 131305Z 23013KT M01/M07 A2992 RMK A01 T10051074  RH  059%=      5-min Rain = 0
KAM1 131306Z 22012KT M01/M07 A2992 RMK A01 T10051074  RH  059%=      5-min Rain = 0
KAM1 131307Z 23010KT M01/M07 A2992 RMK A01 T10051074  RH  059%=      5-min Rain = 0
KAM1 131308Z 23012KT M01/M08 A2992 RMK A01 T10061075  RH  059%=      5-min Rain = 0
KAM1 131309Z 22012G17KT M01/M07 A2992 RMK A01 T10061074  RH  060%=      5-min Rain = 0
KAM1 131310Z 23013KT M01/M07 A2992 RMK A01 T10061074  RH  060%=      5-min Rain = 0
KAM1 131311Z 22013KT M01/M07 A2992 RMK A01 T10051074  RH  060%=      5-min Rain = 0
KAM1 131312Z 22012KT M01/M07 A2992 RMK A01 T10051074  RH  059%=      5-min Rain = 0
KAM1 131313Z 22013KT M01/M08 A2992 RMK A01 T10051075  RH  059%=      5-min Rain = 0
KAM1 131314Z 21012KT M01/M08 A2992 RMK A01 T10061075  RH  060%=      5-min Rain = 0
KAM1 131315Z 21012KT M01/M08 A2992 RMK A01 T10071076  RH  060%=      5-min Rain = 0
KAM1 131316Z 21013KT M01/M08 A2992 RMK A01 T10081076  RH  060%=      5-min Rain = 0
KAM1 131317Z 22012KT M01/M08 A2992 RMK A01 T10091076  RH  060%=      5-min Rain = 0
KAM1 131318Z 22012KT M01/M08 A2992 RMK A01 T10101077  RH  061%=      5-min Rain = 0
KAM1 131319Z 22013KT M01/M08 A2992 RMK A01 T10111076  RH  061%=      5-min Rain = 0
KAM1 131320Z 22015KT M01/M08 A2992 RMK A01 T10101075  RH  061%=      5-min Rain = 0
KAM1 131321Z 22013KT M01/M08 A2992 RMK A01 T10101075  RH  061%=      5-min Rain = 0
KAM1 131322Z 22014KT M01/M07 A2992 RMK A01 T10091074  RH  061%=      5-min Rain = 0
KAM1 131323Z 22013KT M01/M07 A2992 RMK A01 T10091074  RH  061%=      5-min Rain = 0
KAM1 131324Z 22013KT M01/M07 A2992 RMK A01 T10091074  RH  061%=      5-min Rain = 0
KAM1 131325Z 22012KT M01/M07 A2992 RMK A01 T10091074  RH  061%=      5-min Rain = 0
KAM1 131326Z 22012KT M01/M07 A2992 RMK A01 T10091074  RH  061%=      5-min Rain = 0
KAM1 131327Z 22011KT M01/M07 A2992 RMK A01 T10091074  RH  061%=      5-min Rain = 0
KAM1 131328Z 22011KT M01/M08 A2992 RMK A01 T10091075  RH  061%=      5-min Rain = 0
KAM1 131329Z 22010KT M01/M08 A2992 RMK A01 T10101075  RH  061%=      5-min Rain = 0
KAM1 131330Z 22011KT M01/M08 A2993 RMK A01 T10101075  RH  062%=      5-min Rain = 0
KAM1 131331Z 22010KT M01/M08 A2993 RMK A01 T10111075  RH  062%=      5-min Rain = 0
KAM1 131332Z 22009KT M01/M08 A2993 RMK A01 T10111075  RH  062%=      5-min Rain = 0
KAM1 131333Z 22010KT M01/M08 A2993 RMK A01 T10111075  RH  062%=      5-min Rain = 0
KAM1 131334Z 22009KT M01/M08 A2993 RMK A01 T10111075  RH  062%=      5-min Rain = 0
KAM1 131335Z 22010KT M01/M08 A2993 RMK A01 T10111075  RH  062%=      5-min Rain = 0
KAM1 131336Z 22009KT M01/M08 A2993 RMK A01 T10121075  RH  062%=      5-min Rain = 0
KAM1 131337Z 23008KT M01/M07 A2993 RMK A01 T10111074  RH  062%=      5-min Rain = 0
KAM1 131338Z 23009KT M01/M07 A2993 RMK A01 T10111074  RH  062%=      5-min Rain = 0
KAM1 131339Z 22009KT M01/M07 A2993 RMK A01 T10111074  RH  062%=      5-min Rain = 0
KAM1 131340Z 22008KT M01/M07 A2993 RMK A01 T10121074  RH  062%=      5-min Rain = 0
KAM1 131341Z 22008KT M01/M07 A2993 RMK A01 T10111074  RH  062%=      5-min Rain = 0
KAM1 131342Z 22008KT M01/M07 A2993 RMK A01 T10121074  RH  063%=      5-min Rain = 0
KAM1 131343Z 22008KT M01/M07 A2993 RMK A01 T10121074  RH  063%=      5-min Rain = 0
KAM1 131344Z 22008KT M01/M07 A2993 RMK A01 T10121074  RH  063%=      5-min Rain = 0
KAM1 131345Z 22007KT M01/M07 A2993 RMK A01 T10121074  RH  063%=      5-min Rain = 0
KAM1 131346Z 22009KT M01/M07 A2993 RMK A01 T10111073  RH  063%=      5-min Rain = 0
KAM1 131347Z 22008KT M01/M07 A2993 RMK A01 T10111073  RH  063%=      5-min Rain = 0
KAM1 131348Z 23008KT M01/M07 A2993 RMK A01 T10111073  RH  063%=      5-min Rain = 0
KAM1 131349Z 22009KT M01/M07 A2993 RMK A01 T10101072  RH  063%=      5-min Rain = 0
KAM1 131350Z 23009KT M01/M07 A2993 RMK A01 T10091072  RH  062%=      5-min Rain = 0
KAM1 131351Z 23009KT M01/M07 A2993 RMK A01 T10081072  RH  062%=      5-min Rain = 0
KAM1 131352Z 22009KT M01/M07 A2993 RMK A01 T10081071  RH  062%=      5-min Rain = 0
KAM1 131353Z 22010KT M01/M07 A2993 RMK A01 T10071071  RH  062%=      5-min Rain = 0
KAM1 131354Z 22010KT M01/M07 A2993 RMK A01 T10061071  RH  062%=      5-min Rain = 0
KAM1 131355Z 23010KT M01/M07 A2993 RMK A01 T10051070  RH  061%=      5-min Rain = 0
KAM1 131356Z 23010KT M00/M07 A2993 RMK A01 T10041070  RH  061%=      5-min Rain = 0
KAM1 131357Z 22009KT M00/M07 A2993 RMK A01 T10031070  RH  060%=      5-min Rain = 0
KAM1 131358Z 22008KT M00/M07 A2993 RMK A01 T10021070  RH  060%=      5-min Rain = 0
KAM1 131359Z 23010KT M00/M07 A2993 RMK A01 T10021070  RH  060%=      5-min Rain = 0
KAM1 131400Z 23010KT M00/M07 A2993 RMK A01 T10011070  RH  060%=      5-min Rain = 0
KAM1 131401Z 23009KT M00/M07 A2993 RMK A01 T10011070  RH  060%=      5-min Rain = 0
KAM1 131402Z 23010KT 00/07 A2993 RMK A01 T00-00-70  RH  059%=      5-min Rain = 0
KAM1 131403Z 23009KT 00/07 A2993 RMK A01 T00000-70  RH  059%=      5-min Rain = 0
KAM1 131404Z 22010KT 00/M07 A2993 RMK A01 T00011070  RH  059%=      5-min Rain = 0
KAM1 131405Z 23009KT 00/M07 A2993 RMK A01 T00011070  RH  059%=      5-min Rain = 0
KAM1 131406Z 22010KT 00/M07 A2993 RMK A01 T00021070  RH  059%=      5-min Rain = 0
KAM1 131407Z 22010KT 00/M07 A2993 RMK A01 T00021070  RH  059%=      5-min Rain = 0
KAM1 131408Z 23007KT 00/M07 A2993 RMK A01 T00021069  RH  059%=      5-min Rain = 0
KAM1 131409Z 22006KT 00/M07 A2993 RMK A01 T00021069  RH  059%=      5-min Rain = 0
KAM1 131410Z 22005KT 00/M07 A2993 RMK A01 T00031069  RH  059%=      5-min Rain = 0
KAM1 131411Z 22007KT 00/M07 A2993 RMK A01 T00041068  RH  059%=      5-min Rain = 0
KAM1 131412Z 23007KT 00/M07 A2993 RMK A01 T00041068  RH  058%=      5-min Rain = 0
KAM1 131413Z 24007KT 00/M07 A2993 RMK A01 T00041069  RH  058%=      5-min Rain = 0
KAM1 131414Z 23009KT 01/M07 A2994 RMK A01 T00051068  RH  058%=      5-min Rain = 0
KAM1 131415Z 23010KT 01/M07 A2993 RMK A01 T00051068  RH  058%=      5-min Rain = 0
KAM1 131416Z 23008KT 01/M07 A2993 RMK A01 T00061068  RH  058%=      5-min Rain = 0
KAM1 131417Z 23008KT 01/M07 A2993 RMK A01 T00071068  RH  058%=      5-min Rain = 0
KAM1 131418Z 23008KT 01/M07 A2993 RMK A01 T00071067  RH  057%=      5-min Rain = 0
KAM1 131419Z 22010KT 01/M07 A2993 RMK A01 T00081067  RH  057%=      5-min Rain = 0
KAM1 131420Z 22008KT 01/M07 A2993 RMK A01 T00081067  RH  057%=      5-min Rain = 0
KAM1 131421Z 22009KT 01/M07 A2993 RMK A01 T00091067  RH  057%=      5-min Rain = 0
KAM1 131422Z 22009KT 01/M07 A2993 RMK A01 T00091067  RH  057%=      5-min Rain = 0
KAM1 131423Z 23010KT 01/M07 A2993 RMK A01 T00091067  RH  057%=      5-min Rain = 0
KAM1 131424Z 23011KT 01/M07 A2993 RMK A01 T00101067  RH  056%=      5-min Rain = 0
KAM1 131425Z 23009KT 01/M07 A2993 RMK A01 T00101067  RH  056%=      5-min Rain = 0
KAM1 131426Z 23010KT 01/M07 A2993 RMK A01 T00101067  RH  056%=      5-min Rain = 0
KAM1 131427Z 23009KT 01/M07 A2993 RMK A01 T00111067  RH  056%=      5-min Rain = 0
KAM1 131428Z 23011KT 01/M07 A2993 RMK A01 T00111067  RH  056%=      5-min Rain = 0
KAM1 131429Z 23010KT 01/M07 A2993 RMK A01 T00121066  RH  056%=      5-min Rain = 0
KAM1 131430Z 23008KT 01/M07 A2993 RMK A01 T00131066  RH  056%=      5-min Rain = 0
KAM1 131431Z 23008KT 01/M07 A2993 RMK A01 T00141065  RH  056%=      5-min Rain = 0
KAM1 131432Z 23010KT 02/M06 A2994 RMK A01 T00151064  RH  055%=      5-min Rain = 0
KAM1 131433Z 23008KT 02/M06 A2994 RMK A01 T00171064  RH  055%=      5-min Rain = 0
KAM1 131434Z 23008KT 02/M06 A2994 RMK A01 T00181064  RH  055%=      5-min Rain = 0
KAM1 131435Z 24011KT 02/M06 A2994 RMK A01 T00191064  RH  054%=      5-min Rain = 0
KAM1 131436Z 24011KT 02/M06 A2994 RMK A01 T00191064  RH  054%=      5-min Rain = 0
KAM1 131437Z 24009KT 02/M06 A2994 RMK A01 T00201064  RH  054%=      5-min Rain = 0
KAM1 131438Z 24007KT 02/M06 A2994 RMK A01 T00201063  RH  054%=      5-min Rain = 0
KAM1 131439Z 24007G12KT 02/M06 A2994 RMK A01 T00221062  RH  054%=      5-min Rain = 0
KAM1 131440Z 23012KT 02/M06 A2994 RMK A01 T00231062  RH  053%=      5-min Rain = 0
KAM1 131441Z 23011KT 02/M06 A2994 RMK A01 T00231063  RH  053%=      5-min Rain = 0
KAM1 131442Z 24011KT 02/M06 A2994 RMK A01 T00231064  RH  053%=      5-min Rain = 0
KAM1 131443Z 23012KT 02/M06 A2994 RMK A01 T00241063  RH  053%=      5-min Rain = 0
KAM1 131444Z 23012KT 03/M06 A2994 RMK A01 T00251063  RH  053%=      5-min Rain = 0
KAM1 131445Z 24011KT 03/M06 A2994 RMK A01 T00251063  RH  052%=      5-min Rain = 0
KAM1 131446Z 24011KT 03/M06 A2994 RMK A01 T00251062  RH  052%=      5-min Rain = 0
KAM1 131447Z 24010KT 03/M06 A2994 RMK A01 T00271060  RH  053%=      5-min Rain = 0
KAM1 131448Z 24013KT 03/M06 A2994 RMK A01 T00291060  RH  052%=      5-min Rain = 0
KAM1 131449Z 23012KT 03/M06 A2994 RMK A01 T00291061  RH  052%=      5-min Rain = 0
KAM1 131450Z 23012KT 03/M06 A2994 RMK A01 T00281062  RH  051%=      5-min Rain = 0
KAM1 131451Z 24010KT 03/M06 A2994 RMK A01 T00291061  RH  052%=      5-min Rain = 0
KAM1 131452Z 24011KT 03/M06 A2994 RMK A01 T00301061  RH  051%=      5-min Rain = 0
KAM1 131453Z 24009KT 03/M06 A2994 RMK A01 T00311060  RH  051%=      5-min Rain = 0
KAM1 131454Z 23010KT 03/M06 A2994 RMK A01 T00321059  RH  051%=      5-min Rain = 0
KAM1 131455Z 24015KT 03/M06 A2994 RMK A01 T00331059  RH  051%=      5-min Rain = 0
KAM1 131456Z 23013KT 03/M06 A2994 RMK A01 T00331060  RH  050%=      5-min Rain = 0
KAM1 131457Z 24016KT 03/M06 A2994 RMK A01 T00331060  RH  051%=      5-min Rain = 0
KAM1 131458Z 24014KT 03/M06 A2994 RMK A01 T00321061  RH  050%=      5-min Rain = 0
KAM1 131459Z 24015KT 03/M06 A2994 RMK A01 T00321060  RH  051%=      5-min Rain = 0
KAM1 131500Z 24014KT 03/M06 A2994 RMK A01 T00331060  RH  050%=      5-min Rain = 0
KAM1 131501Z 24013KT 03/M06 A2994 RMK A01 T00331060  RH  050%=      5-min Rain = 0
KAM1 131502Z 23014KT 03/M06 A2994 RMK A01 T00331060  RH  051%=      5-min Rain = 0
KAM1 131503Z 24014KT 03/M06 A2994 RMK A01 T00341059  RH  051%=      5-min Rain = 0
KAM1 131504Z 24015KT 04/M06 A2994 RMK A01 T00351059  RH  050%=      5-min Rain = 0
KAM1 131505Z 24014KT 04/M06 A2994 RMK A01 T00351059  RH  050%=      5-min Rain = 0
KAM1 131506Z 24015KT 04/M06 A2994 RMK A01 T00361058  RH  050%=      5-min Rain = 0
KAM1 131507Z 24013KT 04/M06 A2994 RMK A01 T00371058  RH  050%=      5-min Rain = 0
KAM1 131508Z 24014KT 04/M06 A2993 RMK A01 T00381058  RH  050%=      5-min Rain = 0
KAM1 131509Z 24014KT 04/M06 A2993 RMK A01 T00381058  RH  049%=      5-min Rain = 0
KAM1 131510Z 24016KT 04/M06 A2993 RMK A01 T00391058  RH  049%=      5-min Rain = 0
KAM1 131511Z 24015KT 04/M06 A2993 RMK A01 T00391058  RH  049%=      5-min Rain = 0
KAM1 131512Z 24015KT 04/M06 A2993 RMK A01 T00391058  RH  049%=      5-min Rain = 0
KAM1 131513Z 24013KT 04/M06 A2993 RMK A01 T00401057  RH  049%=      5-min Rain = 0
KAM1 131514Z 24012KT 04/M06 A2993 RMK A01 T00411057  RH  049%=      5-min Rain = 0
KAM1 131515Z 25013KT 04/M06 A2993 RMK A01 T00421056  RH  049%=      5-min Rain = 0
KAM1 131516Z 25013KT 04/M06 A2993 RMK A01 T00441055  RH  049%=      5-min Rain = 0
KAM1 131517Z 25013G18KT 05/M05 A2993 RMK A01 T00461054  RH  048%=      5-min Rain = 0
KAM1 131518Z 25016KT 05/M06 A2993 RMK A01 T00471055  RH  048%=      5-min Rain = 0
KAM1 131519Z 26012KT 05/M06 A2993 RMK A01 T00471055  RH  047%=      5-min Rain = 0
KAM1 131520Z 26014KT 05/M05 A2993 RMK A01 T00481054  RH  048%=      5-min Rain = 0
KAM1 131521Z 25016KT 05/M05 A2993 RMK A01 T00501053  RH  047%=      5-min Rain = 0
KAM1 131522Z 25014KT 05/M05 A2993 RMK A01 T00501054  RH  047%=      5-min Rain = 0
KAM1 131523Z 24016KT 05/M05 A2993 RMK A01 T00501053  RH  047%=      5-min Rain = 0
KAM1 131524Z 25015KT 05/M05 A2993 RMK A01 T00511053  RH  047%=      5-min Rain = 0
KAM1 131525Z 25015KT 05/M05 A2993 RMK A01 T00521053  RH  047%=      5-min Rain = 0
KAM1 131526Z 24014KT 05/M05 A2993 RMK A01 T00531053  RH  047%=      5-min Rain = 0
KAM1 131527Z 24015KT 05/M05 A2993 RMK A01 T00541052  RH  046%=      5-min Rain = 0
KAM1 131528Z 24016KT 06/M05 A2993 RMK A01 T00551052  RH  046%=      5-min Rain = 0
KAM1 131529Z 24018KT 06/M05 A2992 RMK A01 T00551053  RH  046%=      5-min Rain = 0
KAM1 131530Z 24015G20KT 06/M05 A2993 RMK A01 T00551053  RH  045%=      5-min Rain = 0
KAM1 131531Z 24012KT 06/M05 A2993 RMK A01 T00571052  RH  046%=      5-min Rain = 0
KAM1 131532Z 24015KT 06/M05 A2993 RMK A01 T00591051  RH  045%=      5-min Rain = 0
KAM1 131533Z 25014KT 06/M05 A2993 RMK A01 T00591051  RH  045%=      5-min Rain = 0
KAM1 131534Z 25015KT 06/M05 A2993 RMK A01 T00601051  RH  045%=      5-min Rain = 0
KAM1 131535Z 24015KT 06/M05 A2993 RMK A01 T00601052  RH  044%=      5-min Rain = 0
KAM1 131536Z 24014KT 06/M05 A2993 RMK A01 T00611051  RH  045%=      5-min Rain = 0
KAM1 131537Z 25013KT 06/M05 A2993 RMK A01 T00631050  RH  044%=      5-min Rain = 0
KAM1 131538Z 24017KT 06/M05 A2993 RMK A01 T00641049  RH  044%=      5-min Rain = 0
KAM1 131539Z 24015KT 07/M05 A2993 RMK A01 T00651050  RH  044%=      5-min Rain = 0
KAM1 131540Z 24016KT 07/M05 A2993 RMK A01 T00651050  RH  044%=      5-min Rain = 0
KAM1 131541Z 24018KT 07/M05 A2993 RMK A01 T00651051  RH  043%=      5-min Rain = 0
KAM1 131542Z 24015KT 06/M05 A2993 RMK A01 T00641052  RH  043%=      5-min Rain = 0
KAM1 131543Z 24016KT 06/M05 A2992 RMK A01 T00641051  RH  044%=      5-min Rain = 0
KAM1 131544Z 24016KT 07/M05 A2992 RMK A01 T00651050  RH  043%=      5-min Rain = 0
KAM1 131545Z 24014KT 07/M05 A2992 RMK A01 T00661049  RH  043%=      5-min Rain = 0
KAM1 131546Z 24016KT 07/M05 A2992 RMK A01 T00681048  RH  043%=      5-min Rain = 0
KAM1 131547Z 24017KT 07/M05 A2992 RMK A01 T00691049  RH  043%=      5-min Rain = 0
KAM1 131548Z 25015KT 07/M05 A2992 RMK A01 T00701048  RH  043%=      5-min Rain = 0
KAM1 131549Z 24012KT 07/M05 A2992 RMK A01 T00711048  RH  043%=      5-min Rain = 0
KAM1 131550Z 24014KT 07/M05 A2992 RMK A01 T00711047  RH  043%=      5-min Rain = 0
KAM1 131551Z 25015KT 07/M05 A2992 RMK A01 T00731047  RH  042%=      5-min Rain = 0
KAM1 131552Z 24015KT 07/M05 A2992 RMK A01 T00731048  RH  042%=      5-min Rain = 0
KAM1 131553Z 25014KT 07/M05 A2992 RMK A01 T00731048  RH  042%=      5-min Rain = 0
KAM1 131554Z 25014KT 07/M05 A2992 RMK A01 T00741046  RH  042%=      5-min Rain = 0
KAM1 131555Z 25015KT 08/M05 A2992 RMK A01 T00751047  RH  042%=      5-min Rain = 0
KAM1 131556Z 25016KT 08/M05 A2992 RMK A01 T00751047  RH  042%=      5-min Rain = 0
KAM1 131557Z 25017KT 08/M05 A2992 RMK A01 T00751047  RH  042%=      5-min Rain = 0
KAM1 131558Z 24015KT 08/M05 A2992 RMK A01 T00751047  RH  042%=      5-min Rain = 0
KAM1 131559Z 23013KT 08/M05 A2992 RMK A01 T00761045  RH  042%=      5-min Rain = 0
KAM1 131600Z 24016KT 08/M04 A2992 RMK A01 T00791043  RH  042%=      5-min Rain = 0
KAM1 131601Z 23012KT 08/M05 A2992 RMK A01 T00801045  RH  041%=      5-min Rain = 0
KAM1 131602Z 23016KT 08/M04 A2992 RMK A01 T00821043  RH  041%=      5-min Rain = 0
KAM1 131603Z 23015KT 08/M04 A2992 RMK A01 T00821044  RH  040%=      5-min Rain = 0
KAM1 131604Z 23016KT 08/M05 A2992 RMK A01 T00811045  RH  040%=      5-min Rain = 0
KAM1 131605Z 23016KT 08/M05 A2992 RMK A01 T00801046  RH  041%=      5-min Rain = 0
KAM1 131606Z 23015KT 08/M05 A2992 RMK A01 T00801046  RH  041%=      5-min Rain = 0
KAM1 131607Z 23013KT 08/M05 A2992 RMK A01 T00811045  RH  041%=      5-min Rain = 0
KAM1 131608Z 24012KT 08/M04 A2992 RMK A01 T00821044  RH  041%=      5-min Rain = 0
KAM1 131609Z 23013KT 08/M04 A2992 RMK A01 T00841042  RH  041%=      5-min Rain = 0
KAM1 131610Z 23014KT 09/M04 A2992 RMK A01 T00861042  RH  040%=      5-min Rain = 0
KAM1 131611Z 24014KT 09/M04 A2992 RMK A01 T00871043  RH  040%=      5-min Rain = 0
KAM1 131612Z 23016KT 09/M04 A2992 RMK A01 T00871043  RH  039%=      5-min Rain = 0
KAM1 131613Z 24015KT 09/M05 A2992 RMK A01 T00871045  RH  039%=      5-min Rain = 0
KAM1 131614Z 24013KT 09/M05 A2992 RMK A01 T00861045  RH  039%=      5-min Rain = 0
KAM1 131615Z 25014KT 09/M04 A2992 RMK A01 T00881044  RH  039%=      5-min Rain = 0
KAM1 131616Z 25014KT 09/M04 A2992 RMK A01 T00891043  RH  039%=      5-min Rain = 0
KAM1 131617Z 25013KT 09/M04 A2992 RMK A01 T00911042  RH  039%=      5-min Rain = 0
KAM1 131618Z 24014KT 09/M04 A2992 RMK A01 T00921043  RH  038%=      5-min Rain = 0
KAM1 131619Z 24015KT 09/M04 A2992 RMK A01 T00921044  RH  038%=      5-min Rain = 0
KAM1 131620Z 24013KT 09/M04 A2992 RMK A01 T00931044  RH  038%=      5-min Rain = 0
KAM1 131621Z 25014KT 09/M04 A2993 RMK A01 T00941042  RH  038%=      5-min Rain = 0
KAM1 131622Z 25015KT 10/M04 A2993 RMK A01 T00961042  RH  038%=      5-min Rain = 0
KAM1 131623Z 25014KT 10/M04 A2993 RMK A01 T00961043  RH  037%=      5-min Rain = 0
KAM1 131624Z 25015KT 10/M04 A2993 RMK A01 T00961043  RH  037%=      5-min Rain = 0
KAM1 131625Z 25013KT 10/M04 A2993 RMK A01 T00961042  RH  037%=      5-min Rain = 0
KAM1 131626Z 25013KT 10/M04 A2993 RMK A01 T00981041  RH  037%=      5-min Rain = 0
KAM1 131627Z 26013KT 10/M04 A2993 RMK A01 T00981042  RH  037%=      5-min Rain = 0
KAM1 131628Z 26014KT 10/M04 A2993 RMK A01 T00991042  RH  037%=      5-min Rain = 0
KAM1 131629Z 27012KT 10/M04 A2993 RMK A01 T00991043  RH  036%=      5-min Rain = 0
KAM1 131630Z 27013KT 10/M04 A2993 RMK A01 T00991043  RH  037%=      5-min Rain = 0
KAM1 131631Z 26014KT 10/M04 A2993 RMK A01 T00991042  RH  037%=      5-min Rain = 0
KAM1 131632Z 25013KT 10/M04 A2993 RMK A01 T01001042  RH  037%=      5-min Rain = 0
KAM1 131633Z 27013KT 10/M04 A2993 RMK A01 T01021040  RH  037%=      5-min Rain = 0
KAM1 131634Z 26014KT 10/M04 A2993 RMK A01 T01031041  RH  036%=      5-min Rain = 0
KAM1 131635Z 26015KT 10/M04 A2993 RMK A01 T01021043  RH  036%=      5-min Rain = 0
KAM1 131636Z 26014KT 10/M04 A2993 RMK A01 T01011044  RH  036%=      5-min Rain = 0
KAM1 131637Z 25013KT 10/M04 A2993 RMK A01 T01001043  RH  036%=      5-min Rain = 0
KAM1 131638Z 25015KT 10/M04 A2993 RMK A01 T01011042  RH  036%=      5-min Rain = 0
KAM1 131639Z 25013KT 10/M04 A2993 RMK A01 T01021042  RH  036%=      5-min Rain = 0
KAM1 131640Z 26011KT 10/M04 A2993 RMK A01 T01011043  RH  036%=      5-min Rain = 0
KAM1 131641Z 26011KT 10/M04 A2993 RMK A01 T01031039  RH  037%=      5-min Rain = 0
KAM1 131642Z 26013KT 11/M04 A2993 RMK A01 T01051038  RH  036%=      5-min Rain = 0
KAM1 131643Z 26013KT 11/M04 A2993 RMK A01 T01071038  RH  036%=      5-min Rain = 0
KAM1 131644Z 26011KT 11/M04 A2993 RMK A01 T01071040  RH  035%=      5-min Rain = 0
KAM1 131645Z 25013KT 11/M04 A2993 RMK A01 T01071040  RH  036%=      5-min Rain = 0
KAM1 131646Z 26014KT 11/M04 A2993 RMK A01 T01071039  RH  036%=      5-min Rain = 0
KAM1 131647Z 25011KT 11/M04 A2993 RMK A01 T01061041  RH  035%=      5-min Rain = 0
KAM1 131648Z 25010KT 11/M04 A2993 RMK A01 T01061041  RH  035%=      5-min Rain = 0
KAM1 131649Z 25013KT 11/M04 A2993 RMK A01 T01061040  RH  036%=      5-min Rain = 0
KAM1 131650Z 25012KT 11/M04 A2993 RMK A01 T01061039  RH  036%=      5-min Rain = 0
KAM1 131651Z 25012KT 11/M04 A2993 RMK A01 T01071039  RH  036%=      5-min Rain = 0
KAM1 131652Z 26009G14KT 11/M04 A2993 RMK A01 T01071040  RH  035%=      5-min Rain = 0
KAM1 131653Z 26010KT 11/M04 A2993 RMK A01 T01081037  RH  036%=      5-min Rain = 0
KAM1 131654Z 25012KT 11/M04 A2993 RMK A01 T01101037  RH  035%=      5-min Rain = 0
KAM1 131655Z 26012KT 11/M04 A2993 RMK A01 T01101039  RH  035%=      5-min Rain = 0
KAM1 131656Z 26011KT 11/M04 A2993 RMK A01 T01101040  RH  035%=      5-min Rain = 0
KAM1 131657Z 26012KT 11/M04 A2993 RMK A01 T01091040  RH  035%=      5-min Rain = 0
KAM1 131658Z 25013KT 11/M04 A2993 RMK A01 T01081040  RH  035%=      5-min Rain = 0
KAM1 131659Z 25012KT 11/M04 A2993 RMK A01 T01091039  RH  035%=      5-min Rain = 0
KAM1 131700Z 24010KT 11/M04 A2993 RMK A01 T01091038  RH  035%=      5-min Rain = 0
KAM1 131701Z 24011KT 11/M04 A2993 RMK A01 T01101037  RH  035%=      5-min Rain = 0
KAM1 131702Z 25008G13KT 11/M04 A2993 RMK A01 T01121035  RH  036%=      5-min Rain = 0
KAM1 131703Z 25010KT 12/M03 A2993 RMK A01 T01161033  RH  035%=      5-min Rain = 0
KAM1 131704Z 25009KT 12/M04 A2993 RMK A01 T01161037  RH  034%=      5-min Rain = 0
KAM1 131705Z 25011KT 12/M03 A2993 RMK A01 T01171034  RH  035%=      5-min Rain = 0
KAM1 131706Z 25011KT 12/M04 A2993 RMK A01 T01181035  RH  034%=      5-min Rain = 0
KAM1 131707Z 26011KT 12/M04 A2993 RMK A01 T01181036  RH  034%=      5-min Rain = 0
KAM1 131708Z 26012KT 12/M04 A2993 RMK A01 T01181036  RH  034%=      5-min Rain = 0
KAM1 131709Z 26012KT 12/M04 A2993 RMK A01 T01171038  RH  034%=      5-min Rain = 0
KAM1 131710Z 26011KT 12/M04 A2993 RMK A01 T01151038  RH  034%=      5-min Rain = 0
KAM1 131711Z 27013KT 12/M04 A2993 RMK A01 T01151037  RH  034%=      5-min Rain = 0
KAM1 131712Z 27013KT 12/M04 A2993 RMK A01 T01151037  RH  034%=      5-min Rain = 0
KAM1 131713Z 26011KT 12/M04 A2993 RMK A01 T01161037  RH  034%=      5-min Rain = 0
KAM1 131714Z 26012KT 12/M04 A2993 RMK A01 T01171035  RH  034%=      5-min Rain = 0
KAM1 131715Z 28011KT 12/M04 A2993 RMK A01 T01181035  RH  034%=      5-min Rain = 0
KAM1 131716Z 27012G17KT 12/M04 A2993 RMK A01 T01181036  RH  034%=      5-min Rain = 0
KAM1 131717Z 26012KT 12/M04 A2993 RMK A01 T01171037  RH  034%=      5-min Rain = 0
KAM1 131718Z 25010KT 12/M04 A2993 RMK A01 T01181035  RH  034%=      5-min Rain = 0
KAM1 131719Z 26011KT 12/M03 A2993 RMK A01 T01201033  RH  034%=      5-min Rain = 0
KAM1 131720Z 27010KT 12/M03 A2993 RMK A01 T01231030  RH  034%=      5-min Rain = 0
KAM1 131721Z 27009KT 12/M03 A2994 RMK A01 T01241032  RH  034%=      5-min Rain = 0
KAM1 131722Z 26011KT 12/M03 A2994 RMK A01 T01241033  RH  034%=      5-min Rain = 0
KAM1 131723Z 26014KT 12/M03 A2994 RMK A01 T01231033  RH  033%=      5-min Rain = 0
KAM1 131724Z 26012KT 12/M03 A2994 RMK A01 T01231033  RH  033%=      5-min Rain = 0
KAM1 131725Z 26011KT 12/M03 A2994 RMK A01 T01231034  RH  033%=      5-min Rain = 0
KAM1 131726Z 26011KT 12/M03 A2994 RMK A01 T01221033  RH  034%=      5-min Rain = 0
KAM1 131727Z 25010KT 12/M03 A2994 RMK A01 T01241030  RH  034%=      5-min Rain = 0
KAM1 131728Z 26011KT 13/M03 A2994 RMK A01 T01271029  RH  034%=      5-min Rain = 0
KAM1 131729Z 26011KT 13/M03 A2994 RMK A01 T01281029  RH  033%=      5-min Rain = 0
KAM1 131730Z 27011KT 13/M03 A2994 RMK A01 T01301028  RH  033%=      5-min Rain = 0
KAM1 131731Z 27009KT 13/M03 A2994 RMK A01 T01311030  RH  033%=      5-min Rain = 0
KAM1 131732Z 26009KT 13/M03 A2994 RMK A01 T01301030  RH  033%=      5-min Rain = 0
KAM1 131733Z 27009KT 13/M03 A2994 RMK A01 T01301030  RH  033%=      5-min Rain = 0
KAM1 131734Z 27010KT 13/M03 A2994 RMK A01 T01311027  RH  033%=      5-min Rain = 0
KAM1 131735Z 26009KT 13/M03 A2994 RMK A01 T01341026  RH  033%=      5-min Rain = 0
KAM1 131736Z 26008KT 14/M03 A2994 RMK A01 T01361027  RH  032%=      5-min Rain = 0
KAM1 131737Z 26009KT 14/M03 A2993 RMK A01 T01351028  RH  032%=      5-min Rain = 0
KAM1 131738Z 26009KT 13/M03 A2993 RMK A01 T01341028  RH  032%=      5-min Rain = 0
KAM1 131739Z 25009KT 13/M03 A2993 RMK A01 T01341027  RH  032%=      5-min Rain = 0
KAM1 131740Z 24009KT 14/M03 A2993 RMK A01 T01351026  RH  033%=      5-min Rain = 0
KAM1 131741Z 25010KT 14/M03 A2993 RMK A01 T01361027  RH  032%=      5-min Rain = 0
KAM1 131742Z 24009KT 14/M03 A2993 RMK A01 T01361028  RH  032%=      5-min Rain = 0
KAM1 131743Z 25006KT 14/M03 A2993 RMK A01 T01361027  RH  032%=      5-min Rain = 0
KAM1 131744Z 28009KT 14/M03 A2993 RMK A01 T01371025  RH  032%=      5-min Rain = 0
KAM1 131745Z 26009KT 14/M03 A2993 RMK A01 T01391025  RH  032%=      5-min Rain = 0
KAM1 131746Z 26007KT 14/M03 A2993 RMK A01 T01401026  RH  032%=      5-min Rain = 0
KAM1 131747Z 26006KT 14/M02 A2993 RMK A01 T01421023  RH  032%=      5-min Rain = 0
KAM1 131748Z 25008KT 14/M02 A2993 RMK A01 T01441022  RH  032%=      5-min Rain = 0
KAM1 131749Z 25010KT 15/M02 A2992 RMK A01 T01461023  RH  031%=      5-min Rain = 0
KAM1 131750Z 26008KT 15/M03 A2992 RMK A01 T01451026  RH  031%=      5-min Rain = 0
KAM1 131751Z 25008KT 14/M03 A2992 RMK A01 T01441025  RH  031%=      5-min Rain = 0
KAM1 131752Z 25010KT 15/M02 A2992 RMK A01 T01461023  RH  031%=      5-min Rain = 0
KAM1 131753Z 25010KT 15/M03 A2992 RMK A01 T01471025  RH  030%=      5-min Rain = 0
KAM1 131754Z 25007G12KT 15/M02 A2992 RMK A01 T01481024  RH  030%=      5-min Rain = 0
KAM1 131755Z 24009KT 15/M02 A2992 RMK A01 T01491022  RH  031%=      5-min Rain = 0
KAM1 131756Z 25009KT 15/M02 A2992 RMK A01 T01511024  RH  030%=      5-min Rain = 0
KAM1 131757Z 25008KT 15/M03 A2992 RMK A01 T01501025  RH  030%=      5-min Rain = 0
KAM1 131758Z 24008KT 15/M03 A2992 RMK A01 T01491025  RH  030%=      5-min Rain = 0
KAM1 131759Z 25009KT 15/M03 A2992 RMK A01 T01481027  RH  030%=      5-min Rain = 0
KAM1 131800Z 25007KT 15/M03 A2992 RMK A01 T01481027  RH  030%=      5-min Rain = 0
KAM1 131801Z 26010KT 15/M03 A2992 RMK A01 T01481027  RH  030%=      5-min Rain = 0
KAM1 131802Z 27008KT 15/M03 A2992 RMK A01 T01491026  RH  030%=      5-min Rain = 0
KAM1 131803Z 25009KT 15/M02 A2992 RMK A01 T01531021  RH  030%=      5-min Rain = 0
KAM1 131804Z 25008KT 16/M02 A2992 RMK A01 T01561023  RH  029%=      5-min Rain = 0
KAM1 131805Z 26007KT 16/M03 A2992 RMK A01 T01561025  RH  029%=      5-min Rain = 0
KAM1 131806Z 25007KT 16/M02 A2992 RMK A01 T01551024  RH  029%=      5-min Rain = 0
KAM1 131807Z 26009KT 16/M02 A2992 RMK A01 T01571021  RH  029%=      5-min Rain = 0
KAM1 131808Z 25009KT 16/M03 A2991 RMK A01 T01571025  RH  028%=      5-min Rain = 0
KAM1 131809Z 25010KT 16/M03 A2991 RMK A01 T01571025  RH  028%=      5-min Rain = 0
KAM1 131810Z 26009KT 16/M03 A2991 RMK A01 T01581026  RH  028%=      5-min Rain = 0
KAM1 131811Z 25007KT 16/M03 A2991 RMK A01 T01581027  RH  028%=      5-min Rain = 0
KAM1 131812Z 24007KT 16/M03 A2991 RMK A01 T01571026  RH  028%=      5-min Rain = 0
KAM1 131813Z 22007KT 16/M02 A2991 RMK A01 T01581024  RH  029%=      5-min Rain = 0
KAM1 131814Z 23009KT 16/M02 A2991 RMK A01 T01611022  RH  028%=      5-min Rain = 0
KAM1 131815Z 23009KT 16/M02 A2991 RMK A01 T01631023  RH  028%=      5-min Rain = 0
KAM1 131816Z 25010KT 16/M02 A2991 RMK A01 T01641024  RH  027%=      5-min Rain = 0
KAM1 131817Z 24007KT 16/M03 A2991 RMK A01 T01641028  RH  027%=      5-min Rain = 0
KAM1 131818Z 24005KT 16/M03 A2991 RMK A01 T01631026  RH  027%=      5-min Rain = 0
KAM1 131819Z 22005KT 16/M02 A299 RMK A01 T01641021  RH  028%=      5-min Rain = 0
KAM1 131820Z 25006KT 17/M02 A299 RMK A01 T01671020  RH  028%=      5-min Rain = 0
KAM1 131821Z 24009KT 17/M02 A299 RMK A01 T01701022  RH  027%=      5-min Rain = 0
KAM1 131822Z 25007KT 17/M03 A299 RMK A01 T01681025  RH  027%=      5-min Rain = 0
KAM1 131823Z 24011KT 17/M02 A299 RMK A01 T01671023  RH  027%=      5-min Rain = 0
KAM1 131824Z 26008KT 17/M02 A299 RMK A01 T01691023  RH  027%=      5-min Rain = 0
KAM1 131825Z 25007KT 17/M02 A299 RMK A01 T01701024  RH  026%=      5-min Rain = 0
KAM1 131826Z 28005KT 17/M03 A299 RMK A01 T01701028  RH  026%=      5-min Rain = 0
KAM1 131827Z 25007KT 17/M03 A299 RMK A01 T01691028  RH  026%=      5-min Rain = 0
KAM1 131828Z 22007KT 17/M03 A299 RMK A01 T01691027  RH  026%=      5-min Rain = 0
KAM1 131829Z 22005KT 17/M03 A299 RMK A01 T01671029  RH  026%=      5-min Rain = 0
KAM1 131830Z 28004KT 17/M03 A299 RMK A01 T01681029  RH  026%=      5-min Rain = 0
KAM1 131831Z 26004KT 17/M03 A299 RMK A01 T01691032  RH  025%=      5-min Rain = 0
KAM1 131832Z 25005KT 17/M03 A299 RMK A01 T01711028  RH  026%=      5-min Rain = 0
KAM1 131833Z 25005KT 17/M03 A299 RMK A01 T01721029  RH  025%=      5-min Rain = 0
KAM1 131834Z 26008KT 17/M03 A299 RMK A01 T01731026  RH  026%=      5-min Rain = 0
KAM1 131835Z 27006KT 18/M02 A299 RMK A01 T01771023  RH  026%=      5-min Rain = 0
KAM1 131836Z 27005KT 18/M02 A299 RMK A01 T01781022  RH  025%=      5-min Rain = 0
KAM1 131837Z 26008KT 18/M03 A299 RMK A01 T01801026  RH  024%=      5-min Rain = 0
KAM1 131838Z 24008KT 18/M03 A299 RMK A01 T01801030  RH  024%=      5-min Rain = 0
KAM1 131839Z 25006KT 18/M03 A299 RMK A01 T01801029  RH  024%=      5-min Rain = 0
KAM1 131840Z 25005KT 18/M03 A299 RMK A01 T01801027  RH  024%=      5-min Rain = 0
KAM1 131841Z 26007KT 18/M03 A299 RMK A01 T01811032  RH  023%=      5-min Rain = 0
KAM1 131842Z 27008KT 18/M03 A299 RMK A01 T01831034  RH  023%=      5-min Rain = 0
KAM1 131843Z 28008KT 19/M03 A299 RMK A01 T01861032  RH  022%=      5-min Rain = 0
KAM1 131844Z 29008KT 19/M03 A299 RMK A01 T01881033  RH  022%=      5-min Rain = 0
KAM1 131845Z 29009KT 19/M04 A299 RMK A01 T01891038  RH  021%=      5-min Rain = 0
KAM1 131846Z 28007KT 19/M04 A299 RMK A01 T01881042  RH  021%=      5-min Rain = 0
KAM1 131847Z 27006KT 19/M05 A299 RMK A01 T01881045  RH  020%=      5-min Rain = 0
KAM1 131848Z 26005KT 19/M05 A299 RMK A01 T01871049  RH  020%=      5-min Rain = 0
KAM1 131849Z 27004KT 19/M05 A2989 RMK A01 T01851049  RH  020%=      5-min Rain = 0
KAM1 131850Z 32007KT 19/M05 A2989 RMK A01 T01851047  RH  020%=      5-min Rain = 0
KAM1 131851Z 32008KT 19/M06 A2989 RMK A01 T01871057  RH  018%=      5-min Rain = 0
KAM1 131852Z 32009KT 19/M06 A2989 RMK A01 T01891059  RH  018%=      5-min Rain = 0
KAM1 131853Z 31009KT 19/M06 A2989 RMK A01 T01891063  RH  018%=      5-min Rain = 0
KAM1 131854Z 31008KT 19/M06 A2989 RMK A01 T01881061  RH  018%=      5-min Rain = 0
KAM1 131855Z 31009KT 19/M06 A2989 RMK A01 T01871062  RH  018%=      5-min Rain = 0
KAM1 131856Z 31005KT 19/M06 A2989 RMK A01 T01871063  RH  018%=      5-min Rain = 0
KAM1 131857Z 32004KT 19/M06 A2989 RMK A01 T01871057  RH  019%=      5-min Rain = 0
KAM1 131858Z 32005KT 19/M06 A2989 RMK A01 T01891058  RH  018%=      5-min Rain = 0
KAM1 131859Z 32003KT 19/M06 A2989 RMK A01 T01911055  RH  018%=      5-min Rain = 0
KAM1 131900Z 32007KT 19/M05 A2989 RMK A01 T01931052  RH  019%=      5-min Rain = 0
KAM1 131901Z 31009KT 19/M06 A2989 RMK A01 T01941060  RH  017%=      5-min Rain = 0
KAM1 131902Z 32010KT 20/M06 A2989 RMK A01 T01951057  RH  018%=      5-min Rain = 0
KAM1 131903Z 32008KT 20/M06 A2989 RMK A01 T01961063  RH  017%=      5-min Rain = 0
KAM1 131904Z 32008KT 19/M07 A2989 RMK A01 T01941065  RH  017%=      5-min Rain = 0
KAM1 131905Z 32005KT 19/M06 A2989 RMK A01 T01921064  RH  017%=      5-min Rain = 0
KAM1 131906Z 35004KT 19/M06 A2989 RMK A01 T01911060  RH  018%=      5-min Rain = 0
KAM1 131907Z 35007KT 19/M06 A2989 RMK A01 T01911063  RH  017%=      5-min Rain = 0
KAM1 131908Z 34007KT 19/M06 A2989 RMK A01 T01921059  RH  018%=      5-min Rain = 0
KAM1 131909Z 34007G12KT 19/M06 A2989 RMK A01 T01931064  RH  017%=      5-min Rain = 0
KAM1 131910Z 33010KT 19/M07 A2989 RMK A01 T01941065  RH  017%=      5-min Rain = 0
KAM1 131911Z 34008KT 20/M07 A2989 RMK A01 T01951067  RH  016%=      5-min Rain = 0
KAM1 131912Z 35006KT 19/M07 A2989 RMK A01 T01941068  RH  016%=      5-min Rain = 0
KAM1 131913Z 34008KT 19/M07 A2989 RMK A01 T01921066  RH  017%=      5-min Rain = 0
KAM1 131914Z 33007KT 19/M07 A2989 RMK A01 T01921067  RH  017%=      5-min Rain = 0
KAM1 131915Z 35008KT 19/M06 A2989 RMK A01 T01931064  RH  017%=      5-min Rain = 0
KAM1 131916Z 36009KT 19/M07 A2989 RMK A01 T01941067  RH  016%=      5-min Rain = 0
KAM1 131917Z 01007KT 20/M07 A2989 RMK A01 T01951065  RH  017%=      5-min Rain = 0
KAM1 131918Z 35007KT 20/M06 A2989 RMK A01 T01951063  RH  017%=      5-min Rain = 0
KAM1 131919Z 36008KT 20/M06 A2989 RMK A01 T01971056  RH  018%=      5-min Rain = 0
KAM1 131920Z 33008KT 20/M06 A2989 RMK A01 T01991059  RH  017%=      5-min Rain = 0
KAM1 131921Z 33007KT 20/M06 A2989 RMK A01 T01981060  RH  017%=      5-min Rain = 0
KAM1 131922Z 33006KT 20/M06 A2988 RMK A01 T01971060  RH  017%=      5-min Rain = 0
KAM1 131923Z 00009KT 20/M06 A2988 RMK A01 T01961064  RH  017%=      5-min Rain = 0
KAM1 131924Z 36008KT 20/M07 A2988 RMK A01 T01971069  RH  016%=      5-min Rain = 0
KAM1 131925Z 34006KT 20/M07 A2988 RMK A01 T01971067  RH  016%=      5-min Rain = 0
KAM1 131926Z 35006KT 20/M07 A2988 RMK A01 T01981065  RH  016%=      5-min Rain = 0
KAM1 131927Z 34006KT 20/M06 A2988 RMK A01 T01991063  RH  016%=      5-min Rain = 0
KAM1 131928Z 00009KT 20/M07 A2988 RMK A01 T02011068  RH  016%=      5-min Rain = 0
KAM1 131929Z 01009KT 20/M07 A2988 RMK A01 T01991074  RH  015%=      5-min Rain = 0
KAM1 131930Z 36008KT 20/M07 A2988 RMK A01 T01981069  RH  016%=      5-min Rain = 0
KAM1 131931Z 34008KT 20/M07 A2988 RMK A01 T01981066  RH  016%=      5-min Rain = 0
KAM1 131932Z 34007KT 20/M06 A2988 RMK A01 T01991064  RH  016%=      5-min Rain = 0
KAM1 131933Z 34007KT 20/M06 A2988 RMK A01 T01991062  RH  017%=      5-min Rain = 0
KAM1 131934Z 34008KT 20/M07 A2988 RMK A01 T02011065  RH  016%=      5-min Rain = 0
KAM1 131935Z 35010KT 20/M07 A2988 RMK A01 T02011067  RH  016%=      5-min Rain = 0
KAM1 131936Z 35010KT 20/M07 A2988 RMK A01 T02011066  RH  016%=      5-min Rain = 0
KAM1 131937Z 35009KT 20/M07 A2988 RMK A01 T02001067  RH  016%=      5-min Rain = 0
KAM1 131938Z 34012KT 20/M07 A2988 RMK A01 T02001068  RH  016%=      5-min Rain = 0
KAM1 131939Z 34011KT 20/M07 A2988 RMK A01 T02001073  RH  015%=      5-min Rain = 0
KAM1 131940Z 35010KT 20/M07 A2988 RMK A01 T01991070  RH  016%=      5-min Rain = 0
KAM1 131941Z 00008KT 20/M07 A2988 RMK A01 T01981068  RH  016%=      5-min Rain = 0
KAM1 131942Z 01009KT 20/M07 A2988 RMK A01 T01991070  RH  016%=      5-min Rain = 0
KAM1 131943Z 01011KT 20/M07 A2988 RMK A01 T01991069  RH  016%=      5-min Rain = 0
KAM1 131944Z 01008KT 20/M07 A2988 RMK A01 T01991070  RH  016%=      5-min Rain = 0
KAM1 131945Z 01007KT 20/M07 A2988 RMK A01 T01981068  RH  016%=      5-min Rain = 0
KAM1 131946Z 35007KT 20/M06 A2988 RMK A01 T02011061  RH  017%=      5-min Rain = 0
KAM1 131947Z 34007KT 20/M06 A2988 RMK A01 T02031064  RH  016%=      5-min Rain = 0
KAM1 131948Z 36009KT 20/M06 A2988 RMK A01 T02031063  RH  016%=      5-min Rain = 0
KAM1 131949Z 00008KT 20/M07 A2988 RMK A01 T02031066  RH  016%=      5-min Rain = 0
KAM1 131950Z 36011KT 20/M07 A2988 RMK A01 T02021066  RH  016%=      5-min Rain = 0
KAM1 131951Z 35010KT 20/M07 A2988 RMK A01 T02011069  RH  016%=      5-min Rain = 0
KAM1 131952Z 35009KT 20/M07 A2988 RMK A01 T02001066  RH  016%=      5-min Rain = 0
KAM1 131953Z 01010KT 20/M06 A2988 RMK A01 T02021063  RH  016%=      5-min Rain = 0
KAM1 131954Z 01010KT 20/M07 A2988 RMK A01 T02031065  RH  016%=      5-min Rain = 0
KAM1 131955Z 35009KT 20/M06 A2988 RMK A01 T02031063  RH  016%=      5-min Rain = 0
KAM1 131956Z 35010KT 20/M07 A2988 RMK A01 T02041065  RH  016%=      5-min Rain = 0
KAM1 131957Z 35009KT 20/M07 A2988 RMK A01 T02031065  RH  016%=      5-min Rain = 0
KAM1 131958Z 35008KT 20/M07 A2988 RMK A01 T02031065  RH  016%=      5-min Rain = 0
KAM1 131959Z 35011KT 20/M06 A2988 RMK A01 T02021064  RH  016%=      5-min Rain = 0
KAM1 132000Z 36011KT 20/M07 A2988 RMK A01 T02021065  RH  016%=      5-min Rain = 0
KAM1 132001Z 01008KT 20/M07 A2988 RMK A01 T02011066  RH  016%=      5-min Rain = 0
KAM1 132002Z 01009KT 20/M06 A2988 RMK A01 T02021060  RH  016%=      5-min Rain = 0
KAM1 132003Z 01010KT 20/M07 A2988 RMK A01 T02041065  RH  016%=      5-min Rain = 0
KAM1 132004Z 00011KT 20/M07 A2988 RMK A01 T02021065  RH  016%=      5-min Rain = 0
KAM1 132005Z 00010KT 20/M07 A2988 RMK A01 T02001066  RH  016%=      5-min Rain = 0
KAM1 132006Z 35010KT 20/M07 A2988 RMK A01 T02001065  RH  016%=      5-min Rain = 0
KAM1 132007Z 35009KT 20/M06 A2988 RMK A01 T02001062  RH  016%=      5-min Rain = 0
KAM1 132008Z 36006KT 20/M06 A2988 RMK A01 T02011060  RH  017%=      5-min Rain = 0
KAM1 132009Z 35007KT 20/M06 A2988 RMK A01 T02021060  RH  016%=      5-min Rain = 0
KAM1 132010Z 36010KT 20/M06 A2988 RMK A01 T02021062  RH  016%=      5-min Rain = 0
KAM1 132011Z 36009KT 20/M06 A2988 RMK A01 T02021063  RH  016%=      5-min Rain = 0
KAM1 132012Z 35009KT 20/M06 A2988 RMK A01 T02021063  RH  016%=      5-min Rain = 0
KAM1 132013Z 35009KT 20/M06 A2988 RMK A01 T02011063  RH  016%=      5-min Rain = 0
KAM1 132014Z 01009KT 20/M06 A2988 RMK A01 T02001062  RH  016%=      5-min Rain = 0
KAM1 132015Z 35007KT 20/M06 A2988 RMK A01 T02011062  RH  016%=      5-min Rain = 0
KAM1 132016Z 01009KT 20/M06 A2988 RMK A01 T02021059  RH  017%=      5-min Rain = 0
KAM1 132017Z 01008KT 20/M06 A2988 RMK A01 T02031060  RH  016%=      5-min Rain = 0
KAM1 132018Z 03007KT 20/M06 A2988 RMK A01 T02041059  RH  016%=      5-min Rain = 0
KAM1 132019Z 01010KT 21/M06 A2988 RMK A01 T02051060  RH  016%=      5-min Rain = 0
KAM1 132020Z 36009KT 21/M06 A2988 RMK A01 T02051061  RH  016%=      5-min Rain = 0
KAM1 132021Z 36008KT 20/M06 A2988 RMK A01 T02041059  RH  016%=      5-min Rain = 0
KAM1 132022Z 36009KT 20/M06 A2988 RMK A01 T02031059  RH  016%=      5-min Rain = 0
KAM1 132023Z 02009KT 20/M06 A2988 RMK A01 T02041057  RH  017%=      5-min Rain = 0
KAM1 132024Z 02010KT 21/M06 A2988 RMK A01 T02061057  RH  016%=      5-min Rain = 0
KAM1 132025Z 03007KT 21/M06 A2988 RMK A01 T02061059  RH  016%=      5-min Rain = 0
KAM1 132026Z 04006KT 21/M06 A2988 RMK A01 T02051055  RH  017%=      5-min Rain = 0
KAM1 132027Z 01009KT 21/M06 A2988 RMK A01 T02051056  RH  017%=      5-min Rain = 0
KAM1 132028Z 01008KT 21/M06 A2988 RMK A01 T02051060  RH  016%=      5-min Rain = 0
KAM1 132029Z 00010KT 21/M06 A2988 RMK A01 T02051057  RH  017%=      5-min Rain = 0
KAM1 132030Z 00012KT 21/M06 A2988 RMK A01 T02061057  RH  017%=      5-min Rain = 0
KAM1 132031Z 36011KT 21/M06 A2988 RMK A01 T02061057  RH  017%=      5-min Rain = 0
KAM1 132032Z 00010KT 21/M06 A2988 RMK A01 T02061057  RH  017%=      5-min Rain = 0
KAM1 132033Z 02010KT 21/M06 A2988 RMK A01 T02051057  RH  016%=      5-min Rain = 0
KAM1 132034Z 02012KT 21/M06 A2989 RMK A01 T02061057  RH  016%=      5-min Rain = 0
KAM1 132035Z 02011KT 21/M06 A2989 RMK A01 T02071056  RH  017%=      5-min Rain = 0
KAM1 132036Z 02013KT 21/M06 A2989 RMK A01 T02071057  RH  016%=      5-min Rain = 0
KAM1 132037Z 02012KT 21/M06 A2989 RMK A01 T02061059  RH  016%=      5-min Rain = 0
KAM1 132038Z 01014KT 21/M06 A2989 RMK A01 T02061059  RH  016%=      5-min Rain = 0
KAM1 132039Z 01012KT 21/M06 A2989 RMK A01 T02051060  RH  016%=      5-min Rain = 0
KAM1 132040Z 02013KT 21/M06 A2989 RMK A01 T02051057  RH  017%=      5-min Rain = 0
KAM1 132041Z 02010KT 21/M06 A2989 RMK A01 T02051056  RH  017%=      5-min Rain = 0
KAM1 132042Z 01010KT 21/M06 A2989 RMK A01 T02061056  RH  017%=      5-min Rain = 0
KAM1 132043Z 01008KT 21/M05 A2989 RMK A01 T02061054  RH  017%=      5-min Rain = 0
KAM1 132044Z 36011KT 21/M05 A2989 RMK A01 T02061054  RH  017%=      5-min Rain = 0
KAM1 132045Z 00011KT 21/M06 A2989 RMK A01 T02071056  RH  017%=      5-min Rain = 0
KAM1 132046Z 01013KT 21/M06 A2989 RMK A01 T02061056  RH  017%=      5-min Rain = 0
KAM1 132047Z 02011KT 21/M05 A2989 RMK A01 T02061054  RH  017%=      5-min Rain = 0
KAM1 132048Z 02008KT 21/M05 A2989 RMK A01 T02061053  RH  017%=      5-min Rain = 0
KAM1 132049Z 02008KT 21/M05 A2989 RMK A01 T02071051  RH  017%=      5-min Rain = 0
KAM1 132050Z 01010KT 21/M05 A2989 RMK A01 T02081053  RH  017%=      5-min Rain = 0
KAM1 132051Z 02012KT 21/M05 A2989 RMK A01 T02091052  RH  017%=      5-min Rain = 0
KAM1 132052Z 02008KT 21/M05 A2989 RMK A01 T02081052  RH  017%=      5-min Rain = 0
KAM1 132053Z 01010KT 21/M05 A2989 RMK A01 T02071051  RH  017%=      5-min Rain = 0
KAM1 132054Z 01008KT 21/M05 A2989 RMK A01 T02071053  RH  017%=      5-min Rain = 0
KAM1 132055Z 01009KT 21/M05 A2989 RMK A01 T02071051  RH  017%=      5-min Rain = 0
KAM1 132056Z 03011KT 21/M05 A2989 RMK A01 T02081053  RH  017%=      5-min Rain = 0
KAM1 132057Z 02012KT 21/M05 A2989 RMK A01 T02071052  RH  017%=      5-min Rain = 0
KAM1 132058Z 03009KT 21/M05 A2989 RMK A01 T02061050  RH  017%=      5-min Rain = 0
KAM1 132059Z 03012KT 21/M05 A2989 RMK A01 T02071050  RH  017%=      5-min Rain = 0
KAM1 132100Z 02011G17KT 21/M05 A2989 RMK A01 T02071051  RH  017%=      5-min Rain = 0
KAM1 132101Z 03011KT 21/M05 A2989 RMK A01 T02061049  RH  018%=      5-min Rain = 0
KAM1 132102Z 03012KT 21/M05 A2989 RMK A01 T02081052  RH  017%=      5-min Rain = 0
KAM1 132103Z 03010KT 21/M05 A2989 RMK A01 T02061054  RH  017%=      5-min Rain = 0
KAM1 132104Z 02014KT 21/M05 A2989 RMK A01 T02061052  RH  017%=      5-min Rain = 0
KAM1 132105Z 02015KT 21/M06 A2989 RMK A01 T02051055  RH  017%=      5-min Rain = 0
KAM1 132106Z 03015KT 21/M06 A299 RMK A01 T02051057  RH  017%=      5-min Rain = 0
KAM1 132107Z 02017KT 20/M06 A2989 RMK A01 T02031059  RH  016%=      5-min Rain = 0
KAM1 132108Z 01013KT 20/M06 A2989 RMK A01 T02031063  RH  016%=      5-min Rain = 0
KAM1 132109Z 02013KT 20/M06 A2989 RMK A01 T02021061  RH  016%=      5-min Rain = 0
KAM1 132110Z 02016KT 20/M06 A2989 RMK A01 T02031059  RH  017%=      5-min Rain = 0
KAM1 132111Z 02013KT 20/M06 A2989 RMK A01 T02031059  RH  016%=      5-min Rain = 0
KAM1 132112Z 01013KT 20/M06 A2989 RMK A01 T02031058  RH  017%=      5-min Rain = 0
KAM1 132113Z 02014G20KT 20/M06 A2989 RMK A01 T02031059  RH  017%=      5-min Rain = 0
KAM1 132114Z 01015KT 20/M07 A2989 RMK A01 T02041068  RH  015%=      5-min Rain = 0
KAM1 132115Z 01013KT 20/M07 A2989 RMK A01 T02031068  RH  015%=      5-min Rain = 0
KAM1 132116Z 01017KT 21/M06 A2989 RMK A01 T02051063  RH  016%=      5-min Rain = 0
KAM1 132117Z 01017KT 21/M07 A299 RMK A01 T02061065  RH  016%=      5-min Rain = 0
KAM1 132118Z 02012KT 21/M06 A299 RMK A01 T02061063  RH  016%=      5-min Rain = 0
KAM1 132119Z 01014G19KT 21/M06 A299 RMK A01 T02071063  RH  016%=      5-min Rain = 0
KAM1 132120Z 02019G24KT 21/M07 A299 RMK A01 T02081065  RH  015%=      5-min Rain = 0
KAM1 132121Z 02018KT 21/M07 A299 RMK A01 T02091069  RH  015%=      5-min Rain = 0
KAM1 132122Z 02018KT 21/M07 A299 RMK A01 T02081069  RH  015%=      5-min Rain = 0
KAM1 132123Z 02019KT 21/M07 A299 RMK A01 T02061072  RH  015%=      5-min Rain = 0
KAM1 132124Z 02021KT 21/M07 A299 RMK A01 T02051073  RH  015%=      5-min Rain = 0
KAM1 132125Z 03016KT 20/M07 A2991 RMK A01 T02031070  RH  015%=      5-min Rain = 0
KAM1 132126Z 03019G26KT 20/M07 A2991 RMK A01 T02031067  RH  016%=      5-min Rain = 0
KAM1 132127Z 02021G26KT 20/M07 A2991 RMK A01 T02041066  RH  016%=      5-min Rain = 0
KAM1 132128Z 02021KT 20/M06 A2991 RMK A01 T02031062  RH  016%=      5-min Rain = 0
KAM1 132129Z 02019KT 20/M06 A2991 RMK A01 T02021057  RH  017%=      5-min Rain = 0
KAM1 132130Z 03020KT 20/M06 A2991 RMK A01 T02021057  RH  017%=      5-min Rain = 0
KAM1 132131Z 03022G29KT 20/M06 A2991 RMK A01 T02011055  RH  017%=      5-min Rain = 0
KAM1 132132Z 03021KT 20/M05 A2992 RMK A01 T01991054  RH  018%=      5-min Rain = 0
KAM1 132133Z 04021KT 20/M05 A2991 RMK A01 T01981054  RH  018%=      5-min Rain = 0
KAM1 132134Z 03021KT 20/M06 A2992 RMK A01 T01971055  RH  018%=      5-min Rain = 0
KAM1 132135Z 03021KT 20/M06 A2991 RMK A01 T01951057  RH  018%=      5-min Rain = 0
KAM1 132136Z 03018G25KT 20/M06 A2991 RMK A01 T01951058  RH  018%=      5-min Rain = 0
KAM1 132137Z 04020KT 20/M06 A2992 RMK A01 T01951058  RH  018%=      5-min Rain = 0
KAM1 132138Z 04020G25KT 20/M06 A2992 RMK A01 T01951060  RH  017%=      5-min Rain = 0
KAM1 132139Z 04021KT 19/M06 A2992 RMK A01 T01941062  RH  017%=      5-min Rain = 0
KAM1 132140Z 03018G24KT 19/M06 A2992 RMK A01 T01941063  RH  017%=      5-min Rain = 0
KAM1 132141Z 03018KT 19/M07 A2992 RMK A01 T01941065  RH  017%=      5-min Rain = 0
KAM1 132142Z 03016G21KT 19/M07 A2992 RMK A01 T01941068  RH  016%=      5-min Rain = 0
KAM1 132143Z 03018KT 19/M07 A2992 RMK A01 T01941065  RH  017%=      5-min Rain = 0
KAM1 132144Z 04022KT 19/M06 A2992 RMK A01 T01941061  RH  017%=      5-min Rain = 0
KAM1 132145Z 04023KT 19/M06 A2992 RMK A01 T01931060  RH  018%=      5-min Rain = 0
KAM1 132146Z 04020KT 19/M06 A2992 RMK A01 T01921060  RH  018%=      5-min Rain = 0
KAM1 132147Z 04018G23KT 19/M06 A2992 RMK A01 T01911062  RH  017%=      5-min Rain = 0
KAM1 132148Z 04014G19KT 19/M06 A2992 RMK A01 T01911060  RH  018%=      5-min Rain = 0
KAM1 132149Z 03019G26KT 19/M06 A2992 RMK A01 T01911059  RH  018%=      5-min Rain = 0
KAM1 132150Z 03024G29KT 19/M07 A2993 RMK A01 T01911066  RH  017%=      5-min Rain = 0
KAM1 132151Z 03021G26KT 19/M07 A2993 RMK A01 T01881071  RH  017%=      5-min Rain = 0
KAM1 132152Z 03022G28KT 19/M07 A2993 RMK A01 T01861071  RH  017%=      5-min Rain = 0
KAM1 132153Z 03022KT 19/M07 A2993 RMK A01 T01861073  RH  017%=      5-min Rain = 0
KAM1 132154Z 03022KT 18/M07 A2993 RMK A01 T01841074  RH  016%=      5-min Rain = 0
KAM1 132155Z 03020G25KT 18/M07 A2993 RMK A01 T01841074  RH  017%=      5-min Rain = 0
KAM1 132156Z 03019KT 18/M07 A2993 RMK A01 T01841074  RH  017%=      5-min Rain = 0
KAM1 132157Z 04019KT 18/M08 A2993 RMK A01 T01841075  RH  017%=      5-min Rain = 0
KAM1 132158Z 03020G26KT 18/M08 A2993 RMK A01 T01841076  RH  016%=      5-min Rain = 0
KAM1 132159Z 04022G27KT 18/M08 A2993 RMK A01 T01831077  RH  016%=      5-min Rain = 0
KAM1 132200Z 03020KT 18/M08 A2993 RMK A01 T01831075  RH  017%=      5-min Rain = 0
KAM1 132201Z 03019G25KT 18/M08 A2993 RMK A01 T01831076  RH  016%=      5-min Rain = 0
KAM1 132202Z 03018KT 18/M08 A2993 RMK A01 T01811076  RH  017%=      5-min Rain = 0
KAM1 132203Z 03015KT 18/M07 A2993 RMK A01 T01811073  RH  017%=      5-min Rain = 0
KAM1 132204Z 03018KT 18/M07 A2994 RMK A01 T01821071  RH  017%=      5-min Rain = 0
KAM1 132205Z 03017G22KT 18/M07 A2994 RMK A01 T01821073  RH  017%=      5-min Rain = 0
KAM1 132206Z 03018G25KT 18/M08 A2994 RMK A01 T01821076  RH  017%=      5-min Rain = 0
KAM1 132207Z 03015G20KT 18/M08 A2994 RMK A01 T01811079  RH  016%=      5-min Rain = 0
KAM1 132208Z 04019KT 18/M08 A2994 RMK A01 T01811080  RH  016%=      5-min Rain = 0
KAM1 132209Z 03014KT 18/M08 A2994 RMK A01 T01811079  RH  016%=      5-min Rain = 0
KAM1 132210Z 03017KT 18/M08 A2994 RMK A01 T01801078  RH  016%=      5-min Rain = 0
KAM1 132211Z 04016G21KT 18/M08 A2994 RMK A01 T01801078  RH  017%=      5-min Rain = 0
KAM1 132212Z 03015KT 18/M08 A2994 RMK A01 T01801075  RH  017%=      5-min Rain = 0
KAM1 132213Z 03014G19KT 18/M07 A2994 RMK A01 T01801074  RH  017%=      5-min Rain = 0
KAM1 132214Z 03016KT 18/M07 A2994 RMK A01 T01801073  RH  017%=      5-min Rain = 0
KAM1 132215Z 03016KT 18/M07 A2994 RMK A01 T01801071  RH  017%=      5-min Rain = 0
KAM1 132216Z 04016KT 18/M07 A2994 RMK A01 T01801071  RH  018%=      5-min Rain = 0
KAM1 132217Z 05016KT 18/M07 A2994 RMK A01 T01791069  RH  018%=      5-min Rain = 0
KAM1 132218Z 04018G23KT 18/M07 A2994 RMK A01 T01781067  RH  018%=      5-min Rain = 0
KAM1 132219Z 03017KT 18/M07 A2994 RMK A01 T01781068  RH  018%=      5-min Rain = 0
KAM1 132220Z 04015KT 18/M07 A2994 RMK A01 T01771068  RH  018%=      5-min Rain = 0
KAM1 132221Z 04016KT 18/M07 A2994 RMK A01 T01771066  RH  018%=      5-min Rain = 0
KAM1 132222Z 05014KT 18/M07 A2994 RMK A01 T01771066  RH  018%=      5-min Rain = 0
KAM1 132223Z 05018KT 18/M07 A2995 RMK A01 T01761066  RH  019%=      5-min Rain = 0
KAM1 132224Z 05016KT 18/M07 A2994 RMK A01 T01751067  RH  018%=      5-min Rain = 0
KAM1 132225Z 06017KT 18/M07 A2995 RMK A01 T01751067  RH  019%=      5-min Rain = 0
KAM1 132226Z 05018KT 17/M07 A2995 RMK A01 T01741067  RH  019%=      5-min Rain = 0
KAM1 132227Z 05012KT 17/M07 A2995 RMK A01 T01741066  RH  019%=      5-min Rain = 0
KAM1 132228Z 05014G19KT 17/M07 A2995 RMK A01 T01741065  RH  019%=      5-min Rain = 0
KAM1 132229Z 05017G22KT 17/M07 A2995 RMK A01 T01741068  RH  019%=      5-min Rain = 0
KAM1 132230Z 05019G24KT 17/M07 A2995 RMK A01 T01731073  RH  018%=      5-min Rain = 0
KAM1 132231Z 05019KT 17/M08 A2995 RMK A01 T01711077  RH  018%=      5-min Rain = 0
KAM1 132232Z 05020G25KT 17/M08 A2995 RMK A01 T01691081  RH  017%=      5-min Rain = 0
KAM1 132233Z 05019KT 17/M08 A2995 RMK A01 T01671082  RH  017%=      5-min Rain = 0
KAM1 132234Z 05015KT 17/M08 A2995 RMK A01 T01661082  RH  018%=      5-min Rain = 0
KAM1 132235Z 04018G23KT 17/M08 A2995 RMK A01 T01651080  RH  018%=      5-min Rain = 0
KAM1 132236Z 04018KT 16/M08 A2995 RMK A01 T01631082  RH  018%=      5-min Rain = 0
KAM1 132237Z 04016G21KT 16/M08 A2995 RMK A01 T01621081  RH  018%=      5-min Rain = 0
KAM1 132238Z 04014KT 16/M08 A2995 RMK A01 T01611080  RH  018%=      5-min Rain = 0
KAM1 132239Z 05015KT 16/M08 A2995 RMK A01 T01601079  RH  019%=      5-min Rain = 0
KAM1 132240Z 05015KT 16/M08 A2996 RMK A01 T01591080  RH  019%=      5-min Rain = 0
KAM1 132241Z 05014KT 16/M08 A2995 RMK A01 T01591079  RH  019%=      5-min Rain = 0
KAM1 132242Z 05013KT 16/M08 A2996 RMK A01 T01591079  RH  019%=      5-min Rain = 0
KAM1 132243Z 05012KT 16/M08 A2996 RMK A01 T01591077  RH  019%=      5-min Rain = 0
KAM1 132244Z 05014KT 16/M08 A2996 RMK A01 T01581077  RH  019%=      5-min Rain = 0
KAM1 132245Z 05014KT 16/M08 A2996 RMK A01 T01571077  RH  019%=      5-min Rain = 0
KAM1 132246Z 05014KT 16/M08 A2996 RMK A01 T01571077  RH  019%=      5-min Rain = 0
KAM1 132247Z 05015KT 16/M08 A2996 RMK A01 T01561077  RH  019%=      5-min Rain = 0
KAM1 132248Z 05013G18KT 16/M08 A2996 RMK A01 T01551077  RH  020%=      5-min Rain = 0
KAM1 132249Z 05015KT 15/M08 A2996 RMK A01 T01541076  RH  020%=      5-min Rain = 0
KAM1 132250Z 06013KT 15/M08 A2996 RMK A01 T01541076  RH  020%=      5-min Rain = 0
KAM1 132251Z 05015KT 15/M08 A2996 RMK A01 T01531076  RH  020%=      5-min Rain = 0
KAM1 132252Z 05014KT 15/M08 A2996 RMK A01 T01531076  RH  020%=      5-min Rain = 0
KAM1 132253Z 05012KT 15/M08 A2996 RMK A01 T01531076  RH  020%=      5-min Rain = 0
KAM1 132254Z 05015KT 15/M08 A2996 RMK A01 T01521075  RH  020%=      5-min Rain = 0
KAM1 132255Z 05013KT 15/M08 A2996 RMK A01 T01521075  RH  020%=      5-min Rain = 0
KAM1 132256Z 05012KT 15/M08 A2996 RMK A01 T01521075  RH  020%=      5-min Rain = 0
KAM1 132257Z 06013KT 15/M07 A2996 RMK A01 T01511074  RH  020%=      5-min Rain = 0
KAM1 132258Z 05013KT 15/M07 A2996 RMK A01 T01501074  RH  021%=      5-min Rain = 0
KAM1 132259Z 05013KT 15/M07 A2996 RMK A01 T01501074  RH  021%=      5-min Rain = 0
KAM1 132300Z 05013KT 15/M07 A2996 RMK A01 T01501074  RH  021%=      5-min Rain = 0
KAM1 132301Z 05013KT 15/M07 A2996 RMK A01 T01501074  RH  021%=      5-min Rain = 0
KAM1 132302Z 06014KT 15/M07 A2996 RMK A01 T01501074  RH  021%=      5-min Rain = 0
KAM1 132303Z 06012KT 15/M07 A2996 RMK A01 T01511073  RH  021%=      5-min Rain = 0
KAM1 132304Z 06012KT 15/M07 A2996 RMK A01 T01501073  RH  021%=      5-min Rain = 0
KAM1 132305Z 05012KT 15/M07 A2996 RMK A01 T01501073  RH  021%=      5-min Rain = 0
KAM1 132306Z 06011KT 15/M07 A2996 RMK A01 T01501072  RH  021%=      5-min Rain = 0
KAM1 132307Z 05012KT 15/M07 A2996 RMK A01 T01501072  RH  021%=      5-min Rain = 0
KAM1 132308Z 06012KT 15/M07 A2997 RMK A01 T01491071  RH  021%=      5-min Rain = 0
KAM1 132309Z 05012KT 15/M07 A2997 RMK A01 T01491072  RH  021%=      5-min Rain = 0
KAM1 132310Z 05011KT 15/M07 A2996 RMK A01 T01481072  RH  021%=      5-min Rain = 0
KAM1 132311Z 05011KT 15/M07 A2997 RMK A01 T01481071  RH  021%=      5-min Rain = 0
KAM1 132312Z 05011KT 15/M07 A2997 RMK A01 T01481070  RH  021%=      5-min Rain = 0
KAM1 132313Z 05012KT 15/M07 A2997 RMK A01 T01481070  RH  022%=      5-min Rain = 0
KAM1 132314Z 05009KT 15/M07 A2996 RMK A01 T01471070  RH  022%=      5-min Rain = 0
KAM1 132315Z 05011KT 15/M07 A2996 RMK A01 T01471070  RH  022%=      5-min Rain = 0
KAM1 132316Z 06011KT 15/M07 A2996 RMK A01 T01461070  RH  022%=      5-min Rain = 0
KAM1 132317Z 06011KT 15/M07 A2997 RMK A01 T01461069  RH  022%=      5-min Rain = 0
KAM1 132318Z 06010KT 15/M07 A2996 RMK A01 T01451069  RH  022%=      5-min Rain = 0
KAM1 132319Z 06009KT 14/M07 A2997 RMK A01 T01441069  RH  022%=      5-min Rain = 0
KAM1 132320Z 07009KT 14/M07 A2997 RMK A01 T01431068  RH  023%=      5-min Rain = 0
KAM1 132321Z 06009KT 14/M07 A2997 RMK A01 T01421068  RH  023%=      5-min Rain = 0
KAM1 132322Z 07009KT 14/M07 A2997 RMK A01 T01401068  RH  023%=      5-min Rain = 0
KAM1 132323Z 07008KT 14/M07 A2997 RMK A01 T01391068  RH  023%=      5-min Rain = 0
KAM1 132324Z 07008KT 14/M07 A2997 RMK A01 T01381068  RH  023%=      5-min Rain = 0
KAM1 132325Z 07007KT 14/M07 A2997 RMK A01 T01361068  RH  024%=      5-min Rain = 0
KAM1 132326Z 07007KT 14/M07 A2997 RMK A01 T01351068  RH  024%=      5-min Rain = 0
KAM1 132327Z 07007KT 13/M07 A2997 RMK A01 T01331068  RH  024%=      5-min Rain = 0
KAM1 132328Z 07008KT 13/M07 A2997 RMK A01 T01311068  RH  024%=      5-min Rain = 0
KAM1 132329Z 07008KT 13/M07 A2997 RMK A01 T01301068  RH  025%=      5-min Rain = 0
KAM1 132330Z 07008KT 13/M07 A2997 RMK A01 T01291067  RH  025%=      5-min Rain = 0
KAM1 132331Z 07008KT 13/M07 A2997 RMK A01 T01281067  RH  025%=      5-min Rain = 0
KAM1 132332Z 06008KT 13/M07 A2997 RMK A01 T01271067  RH  025%=      5-min Rain = 0
KAM1 132333Z 07007KT 13/M07 A2997 RMK A01 T01251067  RH  026%=      5-min Rain = 0
KAM1 132334Z 07008KT 12/M07 A2997 RMK A01 T01241067  RH  026%=      5-min Rain = 0
KAM1 132335Z 06008KT 12/M07 A2997 RMK A01 T01231067  RH  026%=      5-min Rain = 0
KAM1 132336Z 06008KT 12/M07 A2997 RMK A01 T01221067  RH  026%=      5-min Rain = 0
KAM1 132337Z 06007KT 12/M07 A2997 RMK A01 T01221066  RH  026%=      5-min Rain = 0
KAM1 132338Z 06008KT 12/M07 A2997 RMK A01 T01211067  RH  026%=      5-min Rain = 0
KAM1 132339Z 06008KT 12/M07 A2997 RMK A01 T01201067  RH  026%=      5-min Rain = 0
KAM1 132340Z 06008KT 12/M07 A2997 RMK A01 T01191067  RH  027%=      5-min Rain = 0
KAM1 132341Z 06008KT 12/M07 A2997 RMK A01 T01181068  RH  027%=      5-min Rain = 0
KAM1 132342Z 06008KT 12/M07 A2997 RMK A01 T01171067  RH  027%=      5-min Rain = 0
KAM1 132343Z 06008KT 12/M07 A2997 RMK A01 T01171067  RH  027%=      5-min Rain = 0
KAM1 132344Z 06008KT 12/M07 A2997 RMK A01 T01161068  RH  027%=      5-min Rain = 0
KAM1 132345Z 06008KT 12/M07 A2997 RMK A01 T01151067  RH  027%=      5-min Rain = 0
KAM1 132346Z 06008KT 11/M07 A2997 RMK A01 T01141068  RH  027%=      5-min Rain = 0
KAM1 132347Z 06008KT 11/M07 A2997 RMK A01 T01131068  RH  028%=      5-min Rain = 0
KAM1 132348Z 06008KT 11/M07 A2997 RMK A01 T01121067  RH  028%=      5-min Rain = 0
KAM1 132349Z 06008KT 11/M07 A2997 RMK A01 T01111067  RH  028%=      5-min Rain = 0
KAM1 132350Z 06008KT 11/M07 A2997 RMK A01 T01101068  RH  028%=      5-min Rain = 0
KAM1 132351Z 06008KT 11/M07 A2998 RMK A01 T01091067  RH  028%=      5-min Rain = 0
KAM1 132352Z 06008KT 11/M07 A2998 RMK A01 T01081067  RH  029%=      5-min Rain = 0
KAM1 132353Z 06008KT 11/M07 A2998 RMK A01 T01071067  RH  029%=      5-min Rain = 0
KAM1 132354Z 06008KT 11/M07 A2998 RMK A01 T01061067  RH  029%=      5-min Rain = 0
KAM1 132355Z 06008KT 11/M07 A2998 RMK A01 T01051067  RH  029%=      5-min Rain = 0
KAM1 132356Z 06008KT 10/M07 A2998 RMK A01 T01041067  RH  029%=      5-min Rain = 0
KAM1 132357Z 06007KT 10/M07 A2998 RMK A01 T01021068  RH  030%=      5-min Rain = 0
KAM1 132358Z 07007KT 10/M07 A2998 RMK A01 T01011068  RH  030%=      5-min Rain = 0
KAM1 132359Z 07007KT 10/M07 A2998 RMK A01 T00991068  RH  030%=      5-min Rain = 0
KAM1 140000Z 07007KT 10/M07 A2998 RMK A01 T00971068  RH  031%=      5-min Rain = 0
KAM1 140001Z 07007KT 10/M07 A2998 RMK A01 T00961068  RH  031%=      5-min Rain = 0
KAM1 140002Z 07007KT 10/M07 A2998 RMK A01 T00951068  RH  031%=      5-min Rain = 0
KAM1 140003Z 07007KT 09/M07 A2998 RMK A01 T00941068  RH  031%=      5-min Rain = 0
KAM1 140004Z 07007KT 09/M07 A2998 RMK A01 T00931068  RH  032%=      5-min Rain = 0
KAM1 140005Z 07007KT 09/M07 A2998 RMK A01 T00911068  RH  032%=      5-min Rain = 0
KAM1 140006Z 07007KT 09/M07 A2998 RMK A01 T00901068  RH  032%=      5-min Rain = 0
KAM1 140007Z 07007KT 09/M07 A2998 RMK A01 T00891068  RH  032%=      5-min Rain = 0
KAM1 140008Z 07006KT 09/M07 A2998 RMK A01 T00881068  RH  033%=      5-min Rain = 0
KAM1 140009Z 07007KT 09/M07 A2998 RMK A01 T00871069  RH  033%=      5-min Rain = 0
KAM1 140010Z 07007KT 09/M07 A2999 RMK A01 T00861069  RH  033%=      5-min Rain = 0
KAM1 140011Z 07007KT 09/M07 A2999 RMK A01 T00851069  RH  033%=      5-min Rain = 0
KAM1 140012Z 07007KT 08/M07 A2999 RMK A01 T00841068  RH  033%=      5-min Rain = 0
KAM1 140013Z 07007KT 08/M07 A2999 RMK A01 T00831068  RH  034%=      5-min Rain = 0
KAM1 140014Z 07006KT 08/M07 A2999 RMK A01 T00821068  RH  034%=      5-min Rain = 0
KAM1 140015Z 07007KT 08/M07 A2999 RMK A01 T00811069  RH  034%=      5-min Rain = 0
KAM1 140016Z 07007KT 08/M07 A2999 RMK A01 T00801069  RH  034%=      5-min Rain = 0
KAM1 140017Z 07007KT 08/M07 A2999 RMK A01 T00801069  RH  034%=      5-min Rain = 0
KAM1 140018Z 07007KT 08/M07 A2999 RMK A01 T00791068  RH  034%=      5-min Rain = 0
KAM1 140019Z 07007KT 08/M07 A2999 RMK A01 T00791068  RH  035%=      5-min Rain = 0
KAM1 140020Z 07007KT 08/M07 A2999 RMK A01 T00791068  RH  035%=      5-min Rain = 0
KAM1 140021Z 07007KT 08/M07 A2999 RMK A01 T00781068  RH  035%=      5-min Rain = 0
KAM1 140022Z 07007KT 08/M07 A2999 RMK A01 T00771068  RH  035%=      5-min Rain = 0
KAM1 140023Z 07007KT 08/M07 A2999 RMK A01 T00761068  RH  035%=      5-min Rain = 0
KAM1 140024Z 07008KT 08/M07 A2999 RMK A01 T00761068  RH  035%=      5-min Rain = 0
KAM1 140025Z 07008KT 08/M07 A2999 RMK A01 T00751068  RH  035%=      5-min Rain = 0
KAM1 140026Z 07008KT 07/M07 A2999 RMK A01 T00741068  RH  036%=      5-min Rain = 0
KAM1 140027Z 07008KT 07/M07 A2999 RMK A01 T00731068  RH  036%=      5-min Rain = 0
KAM1 140028Z 07008KT 07/M07 A2999 RMK A01 T00721068  RH  036%=      5-min Rain = 0
KAM1 140029Z 07008KT 07/M07 A2999 RMK A01 T00721067  RH  036%=      5-min Rain = 0
KAM1 140030Z 07008KT 07/M07 A30 RMK A01 T00721067  RH  036%=      5-min Rain = 0
KAM1 140031Z 07008KT 07/M07 A30 RMK A01 T00721067  RH  037%=      5-min Rain = 0
KAM1 140032Z 07008KT 07/M07 A30 RMK A01 T00721066  RH  037%=      5-min Rain = 0
KAM1 140033Z 07008KT 07/M07 A30 RMK A01 T00721066  RH  037%=      5-min Rain = 0
KAM1 140034Z 07008KT 07/M07 A30 RMK A01 T00721066  RH  037%=      5-min Rain = 0
KAM1 140035Z 07008KT 07/M07 A30 RMK A01 T00721066  RH  037%=      5-min Rain = 0
KAM1 140036Z 07008KT 07/M07 A30 RMK A01 T00721067  RH  037%=      5-min Rain = 0
KAM1 140037Z 07008KT 07/M07 A30 RMK A01 T00721066  RH  037%=      5-min Rain = 0
KAM1 140038Z 07008KT 07/M07 A30 RMK A01 T00711067  RH  037%=      5-min Rain = 0
KAM1 140039Z 07008KT 07/M07 A30 RMK A01 T00711067  RH  037%=      5-min Rain = 0
KAM1 140040Z 07009KT 07/M07 A30 RMK A01 T00711067  RH  037%=      5-min Rain = 0
KAM1 140041Z 07008KT 07/M07 A30 RMK A01 T00701067  RH  037%=      5-min Rain = 0
KAM1 140042Z 07008KT 07/M07 A30 RMK A01 T00711067  RH  037%=      5-min Rain = 0
KAM1 140043Z 07008KT 07/M07 A30 RMK A01 T00711067  RH  037%=      5-min Rain = 0
KAM1 140044Z 06008KT 07/M07 A30 RMK A01 T00711066  RH  037%=      5-min Rain = 0
KAM1 140045Z 06008KT 07/M07 A3001 RMK A01 T00701066  RH  037%=      5-min Rain = 0
KAM1 140046Z 06009KT 07/M07 A3001 RMK A01 T00711066  RH  037%=      5-min Rain = 0
KAM1 140047Z 06008KT 07/M07 A3001 RMK A01 T00711066  RH  037%=      5-min Rain = 0
KAM1 140048Z 06008KT 07/M07 A3001 RMK A01 T00711065  RH  037%=      5-min Rain = 0
KAM1 140049Z 07008KT 07/M07 A3001 RMK A01 T00711065  RH  037%=      5-min Rain = 0
KAM1 140050Z 06009KT 07/M07 A3001 RMK A01 T00721065  RH  037%=      5-min Rain = 0
KAM1 140051Z 06009KT 07/M06 A3001 RMK A01 T00721064  RH  037%=      5-min Rain = 0
KAM1 140052Z 06009KT 07/M06 A3001 RMK A01 T00721064  RH  037%=      5-min Rain = 0
KAM1 140053Z 06009KT 07/M06 A3001 RMK A01 T00721064  RH  037%=      5-min Rain = 0
KAM1 140054Z 06009KT 07/M06 A3001 RMK A01 T00721064  RH  038%=      5-min Rain = 0
KAM1 140055Z 06009KT 07/M06 A3001 RMK A01 T00711063  RH  038%=      5-min Rain = 0
KAM1 140056Z 06009KT 07/M06 A3001 RMK A01 T00711063  RH  038%=      5-min Rain = 0
KAM1 140057Z 06009KT 07/M06 A3001 RMK A01 T00711062  RH  038%=      5-min Rain = 0
KAM1 140058Z 06009KT 07/M06 A3001 RMK A01 T00711062  RH  038%=      5-min Rain = 0
KAM1 140059Z 06009KT 07/M06 A3001 RMK A01 T00721062  RH  038%=      5-min Rain = 0
KAM1 140100Z 06009KT 07/M06 A3002 RMK A01 T00721062  RH  038%=      5-min Rain = 0
KAM1 140101Z 06009KT 07/M06 A3002 RMK A01 T00731062  RH  038%=      5-min Rain = 0
KAM1 140102Z 06009KT 07/M06 A3002 RMK A01 T00741062  RH  038%=      5-min Rain = 0
KAM1 140103Z 06009KT 07/M06 A3002 RMK A01 T00741061  RH  038%=      5-min Rain = 0
KAM1 140104Z 06009KT 07/M06 A3002 RMK A01 T00741061  RH  038%=      5-min Rain = 0
KAM1 140105Z 06009KT 07/M06 A3002 RMK A01 T00741061  RH  038%=      5-min Rain = 0
KAM1 140106Z 06009KT 07/M06 A3002 RMK A01 T00741062  RH  038%=      5-min Rain = 0
KAM1 140107Z 06009KT 07/M06 A3002 RMK A01 T00741062  RH  038%=      5-min Rain = 0
KAM1 140108Z 06008KT 07/M06 A3002 RMK A01 T00731062  RH  038%=      5-min Rain = 0
KAM1 140109Z 06009KT 07/M06 A3002 RMK A01 T00731062  RH  038%=      5-min Rain = 0
KAM1 140110Z 06009KT 07/M06 A3002 RMK A01 T00721062  RH  038%=      5-min Rain = 0
KAM1 140111Z 06009KT 07/M06 A3002 RMK A01 T00721062  RH  038%=      5-min Rain = 0
KAM1 140112Z 06009KT 07/M06 A3002 RMK A01 T00721062  RH  038%=      5-min Rain = 0
KAM1 140113Z 06009KT 07/M06 A3002 RMK A01 T00721062  RH  038%=      5-min Rain = 0
KAM1 140114Z 06009KT 07/M06 A3002 RMK A01 T00711062  RH  038%=      5-min Rain = 0
KAM1 140115Z 05009KT 07/M06 A3002 RMK A01 T00711062  RH  038%=      5-min Rain = 0
KAM1 140116Z 05009KT 07/M06 A3002 RMK A01 T00711062  RH  038%=      5-min Rain = 0
KAM1 140117Z 06009KT 07/M06 A3002 RMK A01 T00711062  RH  038%=      5-min Rain = 0
KAM1 140118Z 06008KT 07/M06 A3002 RMK A01 T00711061  RH  038%=      5-min Rain = 0
KAM1 140119Z 06009KT 07/M06 A3002 RMK A01 T00711061  RH  038%=      5-min Rain = 0
KAM1 140120Z 06009KT 07/M06 A3002 RMK A01 T00711061  RH  038%=      5-min Rain = 0
KAM1 140121Z 06009KT 07/M06 A3002 RMK A01 T00711061  RH  039%=      5-min Rain = 0
KAM1 140122Z 06009KT 07/M06 A3002 RMK A01 T00701061  RH  039%=      5-min Rain = 0
KAM1 140123Z 06009KT 07/M06 A3003 RMK A01 T00701061  RH  039%=      5-min Rain = 0
KAM1 140124Z 06009KT 07/M06 A3003 RMK A01 T00701061  RH  039%=      5-min Rain = 0
KAM1 140125Z 06009KT 07/M06 A3003 RMK A01 T00701061  RH  039%=      5-min Rain = 0
KAM1 140126Z 06009KT 07/M06 A3003 RMK A01 T00691061  RH  039%=      5-min Rain = 0
KAM1 140127Z 06009KT 07/M06 A3003 RMK A01 T00691061  RH  039%=      5-min Rain = 0
KAM1 140128Z 06009KT 07/M06 A3003 RMK A01 T00691061  RH  039%=      5-min Rain = 0
KAM1 140129Z 06009KT 07/M06 A3003 RMK A01 T00691061  RH  039%=      5-min Rain = 0
KAM1 140130Z 06009KT 07/M06 A3003 RMK A01 T00691061  RH  039%=      5-min Rain = 0
KAM1 140131Z 05009KT 07/M06 A3003 RMK A01 T00691062  RH  039%=      5-min Rain = 0
KAM1 140132Z 05009KT 07/M06 A3003 RMK A01 T00701061  RH  039%=      5-min Rain = 0
KAM1 140133Z 05009KT 07/M06 A3003 RMK A01 T00701061  RH  039%=      5-min Rain = 0
KAM1 140134Z 05009KT 07/M06 A3003 RMK A01 T00701061  RH  039%=      5-min Rain = 0
KAM1 140135Z 05009KT 07/M06 A3003 RMK A01 T00711061  RH  039%=      5-min Rain = 0
KAM1 140136Z 05008KT 07/M06 A3003 RMK A01 T00711061  RH  038%=      5-min Rain = 0
KAM1 140137Z 05008KT 07/M06 A3003 RMK A01 T00711061  RH  038%=      5-min Rain = 0
KAM1 140138Z 05007KT 07/M06 A3003 RMK A01 T00711061  RH  038%=      5-min Rain = 0
KAM1 140139Z 05008KT 07/M06 A3003 RMK A01 T00701062  RH  039%=      5-min Rain = 0
KAM1 140140Z 05008KT 07/M06 A3003 RMK A01 T00691061  RH  039%=      5-min Rain = 0
KAM1 140141Z 05009KT 07/M06 A3003 RMK A01 T00691062  RH  039%=      5-min Rain = 0
KAM1 140142Z 05008KT 07/M06 A3003 RMK A01 T00681062  RH  039%=      5-min Rain = 0
KAM1 140143Z 05008KT 07/M06 A3003 RMK A01 T00681062  RH  039%=      5-min Rain = 0
KAM1 140144Z 05008KT 07/M06 A3004 RMK A01 T00671062  RH  039%=      5-min Rain = 0
KAM1 140145Z 05008KT 07/M06 A3004 RMK A01 T00671062  RH  039%=      5-min Rain = 0
KAM1 140146Z 05008KT 07/M06 A3004 RMK A01 T00671062  RH  039%=      5-min Rain = 0
KAM1 140147Z 05008KT 07/M06 A3004 RMK A01 T00661062  RH  039%=      5-min Rain = 0
KAM1 140148Z 05008KT 07/M06 A3004 RMK A01 T00661062  RH  040%=      5-min Rain = 0
KAM1 140149Z 05008KT 07/M06 A3004 RMK A01 T00661062  RH  040%=      5-min Rain = 0
KAM1 140150Z 05008KT 07/M06 A3004 RMK A01 T00661062  RH  040%=      5-min Rain = 0
KAM1 140151Z 05008KT 07/M06 A3004 RMK A01 T00661062  RH  040%=      5-min Rain = 0
KAM1 140152Z 04008KT 07/M06 A3004 RMK A01 T00651062  RH  040%=      5-min Rain = 0
KAM1 140153Z 04008KT 07/M06 A3004 RMK A01 T00661062  RH  040%=      5-min Rain = 0
KAM1 140154Z 05008KT 07/M06 A3004 RMK A01 T00661062  RH  039%=      5-min Rain = 0
KAM1 140155Z 05008KT 07/M06 A3004 RMK A01 T00651063  RH  040%=      5-min Rain = 0
KAM1 140156Z 04008KT 06/M06 A3004 RMK A01 T00641063  RH  040%=      5-min Rain = 0
KAM1 140157Z 04008KT 07/M06 A3004 RMK A01 T00651062  RH  040%=      5-min Rain = 0
KAM1 140158Z 04008KT 07/M06 A3005 RMK A01 T00651062  RH  040%=      5-min Rain = 0
KAM1 140159Z 04009KT 07/M06 A3005 RMK A01 T00651062  RH  040%=      5-min Rain = 0
KAM1 140200Z 04009KT 07/M06 A3005 RMK A01 T00651062  RH  040%=      5-min Rain = 0
KAM1 140201Z 04009KT 06/M06 A3005 RMK A01 T00641062  RH  040%=      5-min Rain = 0
KAM1 140202Z 04008KT 06/M06 A3005 RMK A01 T00631063  RH  040%=      5-min Rain = 0
KAM1 140203Z 04009KT 06/M06 A3005 RMK A01 T00611063  RH  041%=      5-min Rain = 0
KAM1 140204Z 04009KT 06/M06 A3005 RMK A01 T00601063  RH  041%=      5-min Rain = 0
KAM1 140205Z 04009KT 06/M06 A3005 RMK A01 T00591063  RH  041%=      5-min Rain = 0
KAM1 140206Z 04009KT 06/M06 A3005 RMK A01 T00581062  RH  042%=      5-min Rain = 0
KAM1 140207Z 04009KT 06/M06 A3005 RMK A01 T00581062  RH  042%=      5-min Rain = 0
KAM1 140208Z 04009KT 06/M06 A3006 RMK A01 T00581062  RH  042%=      5-min Rain = 0
KAM1 140209Z 04009KT 06/M06 A3006 RMK A01 T00581061  RH  042%=      5-min Rain = 0
KAM1 140210Z 04009KT 06/M06 A3006 RMK A01 T00581061  RH  042%=      5-min Rain = 0
KAM1 140211Z 04010KT 06/M06 A3006 RMK A01 T00591061  RH  042%=      5-min Rain = 0
KAM1 140212Z 04010KT 06/M06 A3006 RMK A01 T00601060  RH  042%=      5-min Rain = 0
KAM1 140213Z 04009KT 06/M06 A3006 RMK A01 T00611060  RH  042%=      5-min Rain = 0
KAM1 140214Z 04010KT 06/M06 A3006 RMK A01 T00611060  RH  042%=      5-min Rain = 0
KAM1 140215Z 04009KT 06/M06 A3006 RMK A01 T00611060  RH  042%=      5-min Rain = 0
KAM1 140216Z 03009KT 06/M06 A3006 RMK A01 T00611060  RH  042%=      5-min Rain = 0
KAM1 140217Z 03009KT 06/M06 A3006 RMK A01 T00601060  RH  042%=      5-min Rain = 0
KAM1 140218Z 03008KT 06/M06 A3006 RMK A01 T00601060  RH  042%=      5-min Rain = 0
KAM1 140219Z 04009KT 06/M06 A3006 RMK A01 T00591060  RH  042%=      5-min Rain = 0
KAM1 140220Z 03008KT 06/M06 A3006 RMK A01 T00591060  RH  042%=      5-min Rain = 0
KAM1 140221Z 03008KT 06/M06 A3006 RMK A01 T00581060  RH  042%=      5-min Rain = 0
KAM1 140222Z 04008KT 06/M06 A3006 RMK A01 T00581060  RH  042%=      5-min Rain = 0
KAM1 140223Z 04008KT 06/M06 A3006 RMK A01 T00571061  RH  042%=      5-min Rain = 0
KAM1 140224Z 04008KT 06/M06 A3006 RMK A01 T00571061  RH  042%=      5-min Rain = 0
KAM1 140225Z 04008KT 06/M06 A3007 RMK A01 T00571061  RH  042%=      5-min Rain = 0
KAM1 140226Z 04008KT 06/M06 A3007 RMK A01 T00561061  RH  043%=      5-min Rain = 0
KAM1 140227Z 04008KT 06/M06 A3007 RMK A01 T00551061  RH  043%=      5-min Rain = 0
KAM1 140228Z 04007KT 05/M06 A3007 RMK A01 T00541061  RH  043%=      5-min Rain = 0
KAM1 140229Z 04008KT 05/M06 A3007 RMK A01 T00541061  RH  043%=      5-min Rain = 0
KAM1 140230Z 04008KT 05/M06 A3007 RMK A01 T00531061  RH  044%=      5-min Rain = 0
KAM1 140231Z 03007KT 05/M06 A3007 RMK A01 T00531061  RH  044%=      5-min Rain = 0
KAM1 140232Z 03007KT 05/M06 A3007 RMK A01 T00521061  RH  044%=      5-min Rain = 0
KAM1 140233Z 03007KT 05/M06 A3007 RMK A01 T00511061  RH  044%=      5-min Rain = 0
KAM1 140234Z 03007KT 05/M06 A3007 RMK A01 T00491062  RH  044%=      5-min Rain = 0
KAM1 140235Z 03007KT 05/M06 A3007 RMK A01 T00481062  RH  045%=      5-min Rain = 0
KAM1 140236Z 03008KT 05/M06 A3007 RMK A01 T00471062  RH  045%=      5-min Rain = 0
KAM1 140237Z 03007KT 05/M06 A3007 RMK A01 T00471062  RH  045%=      5-min Rain = 0
KAM1 140238Z 03007KT 05/M06 A3007 RMK A01 T00461062  RH  045%=      5-min Rain = 0
KAM1 140239Z 03008KT 05/M06 A3007 RMK A01 T00461062  RH  045%=      5-min Rain = 0
KAM1 140240Z 03008KT 05/M06 A3008 RMK A01 T00471062  RH  045%=      5-min Rain = 0
KAM1 140241Z 03008KT 05/M06 A3008 RMK A01 T00471061  RH  045%=      5-min Rain = 0
KAM1 140242Z 03008KT 05/M06 A3008 RMK A01 T00471061  RH  045%=      5-min Rain = 0
KAM1 140243Z 03007KT 05/M06 A3008 RMK A01 T00471061  RH  046%=      5-min Rain = 0
KAM1 140244Z 03008KT 05/M06 A3008 RMK A01 T00471060  RH  046%=      5-min Rain = 0
KAM1 140245Z 03007KT 05/M06 A3008 RMK A01 T00471061  RH  045%=      5-min Rain = 0
KAM1 140246Z 03008KT 05/M06 A3008 RMK A01 T00471061  RH  045%=      5-min Rain = 0
KAM1 140247Z 03008KT 05/M06 A3008 RMK A01 T00471061  RH  046%=      5-min Rain = 0
KAM1 140248Z 03008KT 05/M06 A3008 RMK A01 T00481060  RH  045%=      5-min Rain = 0
KAM1 140249Z 03008KT 05/M06 A3008 RMK A01 T00491060  RH  045%=      5-min Rain = 0
KAM1 140250Z 03008KT 05/M06 A3008 RMK A01 T00491060  RH  045%=      5-min Rain = 0
KAM1 140251Z 03008KT 05/M06 A3008 RMK A01 T00491060  RH  045%=      5-min Rain = 0
KAM1 140252Z 03009KT 05/M06 A3008 RMK A01 T00501060  RH  045%=      5-min Rain = 0
KAM1 140253Z 03009KT 05/M06 A3008 RMK A01 T00501060  RH  045%=      5-min Rain = 0
KAM1 140254Z 04009KT 05/M06 A3008 RMK A01 T00501060  RH  045%=      5-min Rain = 0
KAM1 140255Z 04009KT 05/M06 A3008 RMK A01 T00511060  RH  045%=      5-min Rain = 0
KAM1 140256Z 03009KT 05/M06 A3008 RMK A01 T00511060  RH  044%=      5-min Rain = 0
KAM1 140257Z 04009KT 05/M06 A3008 RMK A01 T00521060  RH  044%=      5-min Rain = 0
KAM1 140258Z 04009KT 05/M06 A3009 RMK A01 T00521060  RH  044%=      5-min Rain = 0
KAM1 140259Z 04009KT 05/M06 A3009 RMK A01 T00521060  RH  044%=      5-min Rain = 0
KAM1 140300Z 04009KT 05/M06 A3009 RMK A01 T00521060  RH  044%=      5-min Rain = 0
KAM1 140301Z 04008KT 05/M06 A3009 RMK A01 T00511061  RH  044%=      5-min Rain = 0
KAM1 140302Z 04008KT 05/M06 A3009 RMK A01 T00511061  RH  044%=      5-min Rain = 0
KAM1 140303Z 04008KT 05/M06 A3009 RMK A01 T00501061  RH  045%=      5-min Rain = 0
KAM1 140304Z 04008KT 05/M06 A3009 RMK A01 T00491061  RH  045%=      5-min Rain = 0
KAM1 140305Z 04008KT 05/M06 A3009 RMK A01 T00481062  RH  045%=      5-min Rain = 0
KAM1 140306Z 04008KT 05/M06 A3009 RMK A01 T00471062  RH  045%=      5-min Rain = 0
KAM1 140307Z 04008KT 05/M06 A3009 RMK A01 T00461062  RH  045%=      5-min Rain = 0
KAM1 140308Z 04008KT 04/M06 A3009 RMK A01 T00441063  RH  046%=      5-min Rain = 0
KAM1 140309Z 04008KT 04/M06 A3009 RMK A01 T00431063  RH  046%=      5-min Rain = 0
KAM1 140310Z 04008KT 04/M06 A3009 RMK A01 T00421063  RH  046%=      5-min Rain = 0
KAM1 140311Z 04008KT 04/M06 A3009 RMK A01 T00411063  RH  047%=      5-min Rain = 0
KAM1 140312Z 04008KT 04/M06 A3009 RMK A01 T00391064  RH  047%=      5-min Rain = 0
KAM1 140313Z 04009KT 04/M06 A3009 RMK A01 T00381064  RH  047%=      5-min Rain = 0
KAM1 140314Z 04009KT 04/M06 A3009 RMK A01 T00371064  RH  048%=      5-min Rain = 0
KAM1 140315Z 04009KT 04/M06 A3009 RMK A01 T00361064  RH  048%=      5-min Rain = 0
KAM1 140316Z 04009KT 04/M06 A301 RMK A01 T00361063  RH  048%=      5-min Rain = 0
KAM1 140317Z 04009KT 04/M06 A301 RMK A01 T00361063  RH  048%=      5-min Rain = 0
KAM1 140318Z 04009KT 04/M06 A301 RMK A01 T00361063  RH  048%=      5-min Rain = 0
KAM1 140319Z 04008KT 04/M06 A301 RMK A01 T00361063  RH  049%=      5-min Rain = 0
KAM1 140320Z 04008KT 04/M06 A301 RMK A01 T00361062  RH  049%=      5-min Rain = 0
KAM1 140321Z 03007KT 04/M06 A301 RMK A01 T00361062  RH  049%=      5-min Rain = 0
KAM1 140322Z 03008KT 04/M06 A301 RMK A01 T00351063  RH  049%=      5-min Rain = 0
KAM1 140323Z 03008KT 03/M06 A301 RMK A01 T00341063  RH  049%=      5-min Rain = 0
KAM1 140324Z 03008KT 03/M06 A301 RMK A01 T00331063  RH  049%=      5-min Rain = 0
KAM1 140325Z 03008KT 03/M06 A301 RMK A01 T00321063  RH  050%=      5-min Rain = 0
KAM1 140326Z 04008KT 03/M06 A301 RMK A01 T00321063  RH  050%=      5-min Rain = 0
KAM1 140327Z 04008KT 03/M06 A301 RMK A01 T00321063  RH  050%=      5-min Rain = 0
KAM1 140328Z 04008KT 03/M06 A301 RMK A01 T00331062  RH  050%=      5-min Rain = 0
KAM1 140329Z 04008KT 03/M06 A301 RMK A01 T00331062  RH  050%=      5-min Rain = 0
KAM1 140330Z 03008KT 03/M06 A301 RMK A01 T00331063  RH  049%=      5-min Rain = 0
KAM1 140331Z 03008KT 03/M06 A301 RMK A01 T00331062  RH  049%=      5-min Rain = 0
KAM1 140332Z 03008KT 03/M06 A301 RMK A01 T00331063  RH  050%=      5-min Rain = 0
KAM1 140333Z 03008KT 03/M06 A301 RMK A01 T00321063  RH  050%=      5-min Rain = 0
KAM1 140334Z 03008KT 03/M06 A301 RMK A01 T00321063  RH  050%=      5-min Rain = 0
KAM1 140335Z 03008KT 03/M06 A301 RMK A01 T00311063  RH  050%=      5-min Rain = 0
KAM1 140336Z 03008KT 03/M06 A301 RMK A01 T00301064  RH  050%=      5-min Rain = 0
KAM1 140337Z 03008KT 03/M06 A3011 RMK A01 T00301063  RH  050%=      5-min Rain = 0
KAM1 140338Z 03008KT 03/M06 A3011 RMK A01 T00301063  RH  050%=      5-min Rain = 0
KAM1 140339Z 03008KT 03/M06 A3011 RMK A01 T00301063  RH  050%=      5-min Rain = 0
KAM1 140340Z 03008KT 03/M06 A3011 RMK A01 T00301063  RH  050%=      5-min Rain = 0
KAM1 140341Z 03008KT 03/M06 A3011 RMK A01 T00301063  RH  050%=      5-min Rain = 0
KAM1 140342Z 03008KT 03/M06 A3011 RMK A01 T00301063  RH  050%=      5-min Rain = 0
KAM1 140343Z 03008KT 03/M06 A3011 RMK A01 T00311062  RH  050%=      5-min Rain = 0
KAM1 140344Z 03008KT 03/M06 A3011 RMK A01 T00331062  RH  050%=      5-min Rain = 0
KAM1 140345Z 03009KT 04/M06 A3011 RMK A01 T00351061  RH  050%=      5-min Rain = 0
KAM1 140346Z 03009KT 04/M06 A3011 RMK A01 T00361060  RH  049%=      5-min Rain = 0
KAM1 140347Z 02009KT 04/M06 A3011 RMK A01 T00371060  RH  049%=      5-min Rain = 0
KAM1 140348Z 02009KT 04/M06 A3011 RMK A01 T00381060  RH  049%=      5-min Rain = 0
KAM1 140349Z 02009KT 04/M06 A3011 RMK A01 T00391059  RH  049%=      5-min Rain = 0
KAM1 140350Z 02009KT 04/M06 A3011 RMK A01 T00401059  RH  048%=      5-min Rain = 0
KAM1 140351Z 02009KT 04/M06 A3011 RMK A01 T00411060  RH  048%=      5-min Rain = 0
KAM1 140352Z 02010KT 04/M06 A3011 RMK A01 T00421059  RH  048%=      5-min Rain = 0
KAM1 140353Z 02010KT 04/M06 A3011 RMK A01 T00431059  RH  047%=      5-min Rain = 0
KAM1 140354Z 02009KT 04/M06 A3011 RMK A01 T00431059  RH  047%=      5-min Rain = 0
KAM1 140355Z 02009KT 04/M06 A3011 RMK A01 T00431060  RH  047%=      5-min Rain = 0
KAM1 140356Z 01009KT 04/M06 A3011 RMK A01 T00431060  RH  047%=      5-min Rain = 0
KAM1 140357Z 01010KT 04/M06 A3011 RMK A01 T00431060  RH  047%=      5-min Rain = 0
KAM1 140358Z 02010KT 04/M06 A3011 RMK A01 T00431059  RH  047%=      5-min Rain = 0
KAM1 140359Z 01010KT 04/M06 A3012 RMK A01 T00431060  RH  047%=      5-min Rain = 0
KAM1 140400Z 01010KT 04/M06 A3012 RMK A01 T00421060  RH  047%=      5-min Rain = 0
KAM1 140401Z 01010KT 04/M06 A3012 RMK A01 T00421060  RH  048%=      5-min Rain = 0
KAM1 140402Z 01010KT 04/M06 A3012 RMK A01 T00411060  RH  048%=      5-min Rain = 0
KAM1 140403Z 01010KT 04/M06 A3012 RMK A01 T00411060  RH  048%=      5-min Rain = 0
KAM1 140404Z 01010KT 04/M06 A3012 RMK A01 T00411060  RH  048%=      5-min Rain = 0
KAM1 140405Z 01009KT 04/M06 A3012 RMK A01 T00411060  RH  048%=      5-min Rain = 0
KAM1 140406Z 01010KT 04/M06 A3012 RMK A01 T00411060  RH  048%=      5-min Rain = 0
KAM1 140407Z 01010KT 04/M06 A3012 RMK A01 T00411059  RH  048%=      5-min Rain = 0
KAM1 140408Z 01010KT 04/M06 A3012 RMK A01 T00411059  RH  048%=      5-min Rain = 0
KAM1 140409Z 01010KT 04/M06 A3012 RMK A01 T00411059  RH  048%=      5-min Rain = 0
KAM1 140410Z 02010KT 04/M06 A3012 RMK A01 T00421059  RH  048%=      5-min Rain = 0
KAM1 140411Z 01011KT 04/M06 A3012 RMK A01 T00431058  RH  048%=      5-min Rain = 0
KAM1 140412Z 02011KT 04/M06 A3012 RMK A01 T00431058  RH  048%=      5-min Rain = 0
KAM1 140413Z 02011KT 04/M06 A3012 RMK A01 T00441058  RH  047%=      5-min Rain = 0
KAM1 140414Z 02010KT 04/M06 A3012 RMK A01 T00441059  RH  047%=      5-min Rain = 0
KAM1 140415Z 01010KT 04/M06 A3012 RMK A01 T00441058  RH  047%=      5-min Rain = 0
KAM1 140416Z 01010KT 04/M06 A3012 RMK A01 T00431059  RH  048%=      5-min Rain = 0
KAM1 140417Z 01011KT 04/M06 A3012 RMK A01 T00431058  RH  048%=      5-min Rain = 0
KAM1 140418Z 01010KT 04/M06 A3012 RMK A01 T00431058  RH  048%=      5-min Rain = 0
KAM1 140419Z 01011KT 04/M06 A3012 RMK A01 T00431058  RH  048%=      5-min Rain = 0
KAM1 140420Z 01011KT 05/M06 A3012 RMK A01 T00451058  RH  047%=      5-min Rain = 0
KAM1 140421Z 01011KT 05/M06 A3012 RMK A01 T00451058  RH  047%=      5-min Rain = 0
KAM1 140422Z 02011KT 05/M06 A3012 RMK A01 T00451058  RH  047%=      5-min Rain = 0
KAM1 140423Z 02010KT 05/M06 A3012 RMK A01 T00451059  RH  047%=      5-min Rain = 0
KAM1 140424Z 02010KT 04/M06 A3012 RMK A01 T00441059  RH  047%=      5-min Rain = 0
KAM1 140425Z 02010KT 05/M06 A3012 RMK A01 T00451059  RH  047%=      5-min Rain = 0
KAM1 140426Z 02010KT 05/M06 A3012 RMK A01 T00451059  RH  047%=      5-min Rain = 0
KAM1 140427Z 02010KT 05/M06 A3012 RMK A01 T00461059  RH  047%=      5-min Rain = 0
KAM1 140428Z 02009KT 05/M06 A3012 RMK A01 T00461059  RH  046%=      5-min Rain = 0
KAM1 140429Z 02009KT 05/M06 A3012 RMK A01 T00461059  RH  046%=      5-min Rain = 0
KAM1 140430Z 02009KT 05/M06 A3012 RMK A01 T00461059  RH  046%=      5-min Rain = 0
KAM1 140431Z 02009KT 05/M06 A3012 RMK A01 T00461059  RH  046%=      5-min Rain = 0
KAM1 140432Z 02009KT 05/M06 A3013 RMK A01 T00461059  RH  046%=      5-min Rain = 0
KAM1 140433Z 02010KT 05/M06 A3013 RMK A01 T00461060  RH  046%=      5-min Rain = 0
KAM1 140434Z 03009KT 05/M06 A3012 RMK A01 T00451060  RH  046%=      5-min Rain = 0
KAM1 140435Z 03009KT 05/M06 A3012 RMK A01 T00461060  RH  046%=      5-min Rain = 0
KAM1 140436Z 03009KT 05/M06 A3012 RMK A01 T00471059  RH  046%=      5-min Rain = 0
KAM1 140437Z 03008KT 05/M06 A3012 RMK A01 T00461060  RH  046%=      5-min Rain = 0
KAM1 140438Z 03008KT 05/M06 A3012 RMK A01 T00461060  RH  046%=      5-min Rain = 0
KAM1 140439Z 03008KT 05/M06 A3012 RMK A01 T00461060  RH  046%=      5-min Rain = 0
KAM1 140440Z 03009KT 05/M06 A3012 RMK A01 T00451060  RH  046%=      5-min Rain = 0
KAM1 140441Z 03009KT 05/M06 A3012 RMK A01 T00451060  RH  046%=      5-min Rain = 0
KAM1 140442Z 03009KT 05/M06 A3013 RMK A01 T00461060  RH  046%=      5-min Rain = 0
KAM1 140443Z 03009KT 05/M06 A3013 RMK A01 T00451060  RH  046%=      5-min Rain = 0
KAM1 140444Z 03008KT 04/M06 A3013 RMK A01 T00441061  RH  046%=      5-min Rain = 0
KAM1 140445Z 03009KT 04/M06 A3013 RMK A01 T00431061  RH  047%=      5-min Rain = 0
KAM1 140446Z 03008KT 04/M06 A3013 RMK A01 T00431061  RH  047%=      5-min Rain = 0
KAM1 140447Z 03009KT 04/M06 A3013 RMK A01 T00421061  RH  047%=      5-min Rain = 0
KAM1 140448Z 03008KT 04/M06 A3013 RMK A01 T00411061  RH  047%=      5-min Rain = 0
KAM1 140449Z 03009KT 04/M06 A3013 RMK A01 T00411061  RH  047%=      5-min Rain = 0
KAM1 140450Z 02009KT 04/M06 A3013 RMK A01 T00401061  RH  048%=      5-min Rain = 0
KAM1 140451Z 02009KT 04/M06 A3013 RMK A01 T00401061  RH  048%=      5-min Rain = 0
KAM1 140452Z 02009KT 04/M06 A3013 RMK A01 T00401061  RH  048%=      5-min Rain = 0
KAM1 140453Z 02008KT 04/M06 A3013 RMK A01 T00391061  RH  048%=      5-min Rain = 0
KAM1 140454Z 01009KT 04/M06 A3013 RMK A01 T00391061  RH  048%=      5-min Rain = 0
KAM1 140455Z 01009KT 04/M06 A3013 RMK A01 T00391061  RH  048%=      5-min Rain = 0
KAM1 140456Z 01009KT 04/M06 A3013 RMK A01 T00401061  RH  048%=      5-min Rain = 0
KAM1 140457Z 01009KT 04/M06 A3013 RMK A01 T00391061  RH  048%=      5-min Rain = 0
KAM1 140458Z 01008KT 04/M06 A3013 RMK A01 T00401060  RH  048%=      5-min Rain = 0
KAM1 140459Z 01008KT 04/M06 A3013 RMK A01 T00401060  RH  048%=      5-min Rain = 0
KAM1 140500Z 01007KT 04/M06 A3013 RMK A01 T00391061  RH  048%=      5-min Rain = 0
KAM1 140501Z 01008KT 04/M06 A3013 RMK A01 T00381062  RH  048%=      5-min Rain = 0
KAM1 140502Z 01007KT 04/M06 A3013 RMK A01 T00361062  RH  049%=      5-min Rain = 0
KAM1 140503Z 01008KT 04/M06 A3013 RMK A01 T00361062  RH  049%=      5-min Rain = 0
KAM1 140504Z 01009KT 04/M06 A3014 RMK A01 T00351062  RH  049%=      5-min Rain = 0
KAM1 140505Z 01009KT 04/M06 A3014 RMK A01 T00361061  RH  049%=      5-min Rain = 0
KAM1 140506Z 01008KT 04/M06 A3014 RMK A01 T00371061  RH  049%=      5-min Rain = 0
KAM1 140507Z 01008KT 04/M06 A3014 RMK A01 T00381061  RH  049%=      5-min Rain = 0
KAM1 140508Z 01008KT 04/M06 A3014 RMK A01 T00391061  RH  048%=      5-min Rain = 0
KAM1 140509Z 01008KT 04/M06 A3014 RMK A01 T00391061  RH  048%=      5-min Rain = 0
KAM1 140510Z 01008KT 04/M06 A3014 RMK A01 T00401061  RH  048%=      5-min Rain = 0
KAM1 140511Z 00008KT 04/M06 A3014 RMK A01 T00391061  RH  048%=      5-min Rain = 0
KAM1 140512Z 00007KT 04/M06 A3014 RMK A01 T00391062  RH  048%=      5-min Rain = 0
KAM1 140513Z 01008KT 04/M06 A3014 RMK A01 T00381062  RH  048%=      5-min Rain = 0
KAM1 140514Z 01009KT 04/M06 A3014 RMK A01 T00371062  RH  048%=      5-min Rain = 0
KAM1 140515Z 01008KT 04/M06 A3014 RMK A01 T00361062  RH  048%=      5-min Rain = 0
KAM1 140516Z 01007KT 04/M06 A3014 RMK A01 T00361062  RH  049%=      5-min Rain = 0
KAM1 140517Z 01008KT 04/M06 A3014 RMK A01 T00351062  RH  049%=      5-min Rain = 0
KAM1 140518Z 01007KT 04/M06 A3014 RMK A01 T00351062  RH  049%=      5-min Rain = 0
KAM1 140519Z 01008KT 04/M06 A3014 RMK A01 T00351062  RH  049%=      5-min Rain = 0
KAM1 140520Z 01007KT 04/M06 A3014 RMK A01 T00351062  RH  049%=      5-min Rain = 0
KAM1 140521Z 00007KT 04/M06 A3014 RMK A01 T00351062  RH  049%=      5-min Rain = 0
KAM1 140522Z 01007KT 03/M06 A3014 RMK A01 T00341062  RH  049%=      5-min Rain = 0
KAM1 140523Z 00007KT 03/M06 A3015 RMK A01 T00341062  RH  050%=      5-min Rain = 0
KAM1 140524Z 00007KT 03/M06 A3015 RMK A01 T00341061  RH  050%=      5-min Rain = 0
KAM1 140525Z 01007KT 03/M06 A3015 RMK A01 T00341061  RH  050%=      5-min Rain = 0
KAM1 140526Z 00008KT 03/M06 A3015 RMK A01 T00331061  RH  050%=      5-min Rain = 0
KAM1 140527Z 01008KT 03/M06 A3015 RMK A01 T00331061  RH  050%=      5-min Rain = 0
KAM1 140528Z 00007KT 03/M06 A3015 RMK A01 T00331061  RH  050%=      5-min Rain = 0
KAM1 140529Z 00008KT 03/M06 A3015 RMK A01 T00331062  RH  050%=      5-min Rain = 0
KAM1 140530Z 01008KT 03/M06 A3015 RMK A01 T00321062  RH  050%=      5-min Rain = 0
KAM1 140531Z 01008KT 03/M06 A3015 RMK A01 T00311062  RH  051%=      5-min Rain = 0
KAM1 140532Z 01008KT 03/M06 A3015 RMK A01 T00311061  RH  051%=      5-min Rain = 0
KAM1 140533Z 01008KT 03/M06 A3015 RMK A01 T00311061  RH  051%=      5-min Rain = 0
KAM1 140534Z 01008KT 03/M06 A3015 RMK A01 T00301061  RH  051%=      5-min Rain = 0
KAM1 140535Z 01007KT 03/M06 A3015 RMK A01 T00301061  RH  051%=      5-min Rain = 0
KAM1 140536Z 02007KT 03/M06 A3015 RMK A01 T00301061  RH  051%=      5-min Rain = 0
KAM1 140537Z 02007KT 03/M06 A3015 RMK A01 T00301061  RH  051%=      5-min Rain = 0
KAM1 140538Z 02007KT 03/M06 A3015 RMK A01 T00291061  RH  052%=      5-min Rain = 0
KAM1 140539Z 02007KT 03/M06 A3015 RMK A01 T00281061  RH  052%=      5-min Rain = 0
KAM1 140540Z 02007KT 03/M06 A3015 RMK A01 T00281061  RH  052%=      5-min Rain = 0
KAM1 140541Z 02007KT 03/M06 A3015 RMK A01 T00271062  RH  052%=      5-min Rain = 0
KAM1 140542Z 02007KT 03/M06 A3015 RMK A01 T00261062  RH  052%=      5-min Rain = 0
KAM1 140543Z 02007KT 03/M06 A3015 RMK A01 T00251062  RH  053%=      5-min Rain = 0
KAM1 140544Z 02007KT 02/M06 A3015 RMK A01 T00241062  RH  053%=      5-min Rain = 0
KAM1 140545Z 02007KT 02/M06 A3015 RMK A01 T00231062  RH  053%=      5-min Rain = 0
KAM1 140546Z 02007KT 02/M06 A3015 RMK A01 T00221062  RH  054%=      5-min Rain = 0
KAM1 140547Z 02007KT 02/M06 A3015 RMK A01 T00211062  RH  054%=      5-min Rain = 0
KAM1 140548Z 03007KT 02/M06 A3015 RMK A01 T00201062  RH  054%=      5-min Rain = 0
KAM1 140549Z 02007KT 02/M06 A3015 RMK A01 T00191062  RH  055%=      5-min Rain = 0
KAM1 140550Z 03007KT 02/M06 A3016 RMK A01 T00181062  RH  055%=      5-min Rain = 0
KAM1 140551Z 02007KT 02/M06 A3016 RMK A01 T00181062  RH  055%=      5-min Rain = 0
KAM1 140552Z 02007KT 02/M06 A3016 RMK A01 T00171063  RH  055%=      5-min Rain = 0
KAM1 140553Z 02007KT 02/M06 A3016 RMK A01 T00171063  RH  056%=      5-min Rain = 0
KAM1 140554Z 02007KT 02/M06 A3016 RMK A01 T00161062  RH  056%=      5-min Rain = 0
KAM1 140555Z 02007KT 02/M06 A3016 RMK A01 T00151063  RH  056%=      5-min Rain = 0
KAM1 140556Z 02007KT 02/M06 A3016 RMK A01 T00151063  RH  056%=      5-min Rain = 0
KAM1 140557Z 02007KT 02/M06 A3016 RMK A01 T00161062  RH  056%=      5-min Rain = 0
KAM1 140558Z 02007KT 02/M06 A3016 RMK A01 T00161062  RH  056%=      5-min Rain = 0
KAM1 140559Z 02007KT 02/M06 A3016 RMK A01 T00161062  RH  056%=      5-min Rain = 0

Page generated in 0.0712 seconds.